GEFSSE_con_prob3kmehi_030.txt.gz
EHI
99 98 94 78 49 24 10 4 1 0 0 0 0 0 0 0 0 0 0 0 0 0 0 0 0 0 0 0 0 0 0 0 0 0 0 0 0 0 0 0 0 0 0
99 97 90 73 47 25 11 5 2 1 0 0 0 0 0 0 0 0 0 0 0 0 0 0 0 0 0 0 0 0 0 0 0 0 0 0 0 0 0 0 0 0 0
93 84 75 63 41 21 12 7 4 1 0 0 0 0 0 0 0 0 0 0 0 0 0 0 0 0 0 0 0 0 0 0 0 0 0 0 0 0 0 0 0 0 0
81 67 59 53 33 15 8 6 4 3 3 3 3 2 2 1 0 0 0 0 0 0 0 0 0 0 0 0 0 0 0 0 0 0 0 0 0 0 0 0 0 0 0
77 65 58 48 28 11 4 3 3 3 5 6 6 5 4 2 0 0 0 0 0 0 0 0 0 0 0 0 0 0 0 0 0 0 0 0 0 0 0 0 0 0 0
81 73 62 48 28 11 3 1 1 3 4 5 6 6 4 1 0 0 0 0 0 0 0 0 0 0 0 0 0 0 0 0 0 0 4 8 6 1 0 0 0 0 0
86 77 62 47 29 12 4 2 3 3 3 3 4 3 2 1 0 0 0 0 0 0 1 2 2 1 0 0 0 0 0 0 0 0 10 24 21 7 1 0 0 0 0
91 79 60 42 26 12 6 4 4 3 2 1 1 1 1 0 0 1 1 1 1 3 7 10 8 5 2 1 0 0 0 0 0 0 16 41 44 25 10 3 0 0 0
89 73 46 28 19 11 7 6 5 4 3 2 2 1 1 0 0 2 5 7 9 14 22 25 21 14 9 5 1 0 0 0 0 0 16 49 65 54 31 12 2 0 0
71 54 31 22 21 15 14 16 15 11 7 5 5 4 3 1 1 4 12 22 31 36 39 38 31 23 17 10 4 1 0 0 0 0 13 47 77 78 57 28 8 1 0
47 37 30 36 33 22 27 36 32 23 18 13 10 10 9 5 3 6 20 41 55 56 53 45 35 28 22 13 5 1 0 0 0 0 14 50 83 88 74 48 21 7 3
39 39 45 55 52 41 44 54 45 36 38 32 25 30 30 19 8 8 28 57 70 67 63 56 47 37 25 13 8 6 3 0 0 0 19 60 89 91 82 64 39 18 8
55 58 63 69 69 63 61 60 50 46 52 50 45 54 57 44 25 17 34 64 77 75 72 70 64 49 29 15 13 14 8 1 0 2 27 70 94 92 84 72 54 31 16
78 78 78 78 77 73 66 56 47 45 48 51 56 65 70 65 49 36 43 61 70 70 68 65 60 47 29 18 16 19 15 6 1 7 34 73 93 91 84 75 59 38 25
89 85 80 76 72 68 61 51 41 36 35 38 47 57 62 66 63 56 51 51 52 53 50 45 41 35 28 23 21 24 24 18 11 15 37 64 80 85 85 76 58 37 25
84 80 72 61 54 54 51 43 33 27 27 29 35 41 45 50 57 58 50 40 36 37 36 32 28 28 29 28 27 27 30 29 26 26 35 48 58 69 77 74 59 38 24
70 71 62 43 34 37 36 29 23 20 22 27 31 30 28 32 40 45 39 29 24 25 25 23 22 24 24 25 25 24 27 30 30 29 30 33 36 41 52 59 57 45 32
56 60 53 34 25 24 19 14 11 12 17 23 28 28 23 20 24 28 24 18 15 14 13 13 14 15 14 15 16 16 18 21 22 22 21 21 19 20 25 33 40 39 33
39 42 39 28 20 15 9 5 5 8 12 16 22 28 26 17 13 13 12 10 8 6 4 5 6 6 5 7 8 9 10 11 11 10 10 10 11 10 9 11 16 18 18
19 22 22 18 14 10 6 3 3 5 8 12 18 26 25 15 9 7 7 5 3 2 1 1 2 1 1 2 2 3 4 5 5 4 4 5 7 6 4 4 5 4 4
7 8 9 11 12 9 5 4 4 4 6 9 13 17 16 11 7 7 6 4 2 2 1 0 0 0 0 0 0 1 3 3 3 2 2 2 3 2 2 5 7 3 1
4 4 6 11 12 8 5 3 3 3 2 4 7 10 9 7 5 5 5 4 3 2 2 0 0 0 0 0 0 1 2 2 1 1 1 0 1 1 1 5 7 4 1
2 1 4 10 11 8 4 2 1 1 0 0 2 4 4 3 2 2 3 3 2 3 2 0 0 0 0 0 0 0 1 1 0 0 0 0 0 0 0 2 4 4 2
0 0 2 5 7 6 3 0 0 0 0 0 0 1 1 1 0 1 1 1 1 3 2 1 0 0 0 0 0 0 0 0 0 0 0 0 0 0 0 0 1 2 2
0 0 0 1 2 2 1 0 0 0 0 0 0 0 0 0 0 0 0 0 0 1 2 1 0 0 0 0 0 0 0 0 0 0 0 0 0 0 0 0 0 1 1
0 0 0 0 0 0 0 0 0 0 0 0 0 0 0 0 0 0 0 0 0 0 1 1 1 1 0 0 0 0 0 0 0 0 0 0 0 0 0 0 0 0 0

GEFSSE_con_prob3kmehi_036.txt.gz
EHI
15 35 60 65 60 57 50 34 20 16 17 17 14 9 6 5 6 7 6 5 4 3 3 3 3 3 3 3 3 3 3 3 3 3 4 4 4 3 3 3 3 3 3
28 41 59 62 57 56 51 37 20 12 11 11 9 7 4 4 5 5 5 4 3 3 3 3 3 3 3 3 3 3 3 3 3 3 3 4 3 3 3 3 3 3 3
44 44 53 58 56 58 58 47 27 12 7 5 5 4 3 3 3 4 4 3 3 3 3 3 3 3 3 3 3 3 3 3 3 3 3 3 3 3 3 3 3 3 3
47 42 48 60 62 64 67 61 42 21 9 5 3 3 3 3 3 3 3 3 3 3 3 3 3 3 3 3 3 3 3 3 3 3 3 3 3 3 3 3 3 3 3
42 39 48 64 69 70 71 69 56 35 18 9 4 3 3 3 3 3 3 3 3 3 3 3 3 3 3 3 3 3 3 3 3 3 3 3 3 4 4 4 4 3 3
38 36 46 61 67 68 69 68 59 43 26 13 6 4 4 4 4 3 3 3 3 3 3 3 3 3 3 3 3 3 3 3 3 3 3 3 4 6 7 6 5 4 4
33 30 37 50 55 55 54 53 47 36 24 13 7 6 6 5 5 4 4 4 3 3 3 4 4 3 3 3 3 3 3 3 3 3 3 3 5 12 16 12 8 5 4
22 19 22 31 35 33 31 29 26 22 17 10 6 6 6 5 4 4 4 4 4 3 4 5 5 5 5 4 4 3 3 3 3 3 3 3 8 19 27 23 13 7 4
12 10 9 11 14 14 12 11 10 10 9 6 4 4 4 4 3 3 4 4 4 4 5 6 6 8 9 8 5 3 3 3 3 3 3 3 9 22 31 29 20 11 6
9 6 4 3 4 5 5 5 4 4 4 4 3 3 3 3 3 3 3 3 4 6 7 7 10 15 16 12 7 4 3 3 3 3 3 4 9 19 28 30 27 18 10
21 14 8 6 4 4 3 3 3 3 3 3 4 4 4 3 3 4 4 4 6 8 11 14 21 27 27 20 11 6 4 3 3 3 3 3 10 23 32 36 35 28 19
42 34 24 18 12 7 5 4 4 4 4 5 6 7 6 5 4 5 4 5 8 12 17 26 36 42 42 35 21 11 8 5 3 3 2 3 14 32 45 47 46 41 34
61 54 46 37 29 21 14 9 5 5 7 7 8 9 8 6 5 5 4 5 7 13 22 35 45 49 48 41 28 17 12 7 4 2 2 4 15 37 55 59 57 53 49
66 63 57 50 42 33 22 12 6 6 8 8 7 6 6 6 5 4 4 3 5 11 22 33 40 42 40 33 24 16 11 7 4 2 1 4 13 31 53 63 62 58 56
56 53 48 42 34 26 17 9 6 6 6 5 4 5 5 4 4 3 2 2 3 7 13 20 24 26 25 20 15 11 8 5 3 2 2 3 8 19 39 57 59 52 49
36 32 28 23 17 12 8 6 5 5 3 2 3 5 5 5 3 3 2 2 2 2 5 7 11 13 13 11 9 8 6 4 3 2 2 3 5 10 24 43 49 41 35
19 16 13 10 8 6 5 4 3 2 1 1 2 3 4 4 3 3 3 2 1 0 1 2 4 6 7 7 7 7 6 4 2 2 2 3 3 6 15 30 36 29 24
10 8 7 6 5 3 2 2 1 1 0 0 0 0 1 2 2 2 2 2 1 0 0 1 1 2 4 6 6 6 5 3 1 0 1 2 2 4 9 18 23 19 17
4 3 3 3 3 1 1 1 0 0 0 0 0 0 0 1 1 1 1 1 0 0 0 0 0 0 2 4 5 4 4 3 1 0 0 1 2 3 5 10 12 11 9
1 1 1 1 1 0 0 0 0 0 0 0 0 0 0 0 0 0 0 0 0 0 0 0 0 0 0 2 3 3 2 2 1 0 0 0 1 2 3 4 5 5 4
0 0 0 0 0 0 0 0 0 0 0 0 0 0 0 0 0 0 0 0 0 0 0 0 0 0 0 0 1 1 1 1 0 0 0 0 0 1 1 1 1 2 2
0 0 0 0 0 0 0 0 0 0 0 0 0 0 0 0 0 0 0 0 0 0 0 0 0 0 0 0 0 0 0 0 0 0 0 0 0 0 0 0 0 1 2
0 0 0 0 0 0 0 0 0 0 0 0 0 0 0 0 0 0 0 0 0 0 0 0 0 0 0 0 0 0 0 0 0 0 0 0 0 0 0 0 0 1 2
0 0 0 0 0 0 0 0 0 0 0 0 0 0 0 0 0 0 0 0 0 0 0 0 0 0 0 0 0 0 0 0 0 0 0 0 0 0 0 0 0 0 1
0 0 0 0 0 0 0 0 0 0 0 0 0 0 0 0 0 0 0 0 0 0 0 0 0 0 0 0 0 0 0 0 0 0 0 0 0 0 0 0 0 0 0
0 0 0 0 0 0 0 0 0 0 0 0 0 0 0 0 0 0 0 0 0 0 0 0 0 0 0 0 0 0 0 0 0 0 0 0 0 0 0 0 0 0 0

GEFSSE_con_prob3kmehi_042.txt.gz
EHI
1 3 9 19 37 62 81 89 91 92 91 91 91 91 88 80 66 48 30 16 8 3 1 0 0 0 0 0 0 0 0 0 0 0 0 0 0 0 0 0 0 0 0
7 5 11 24 42 63 79 87 88 86 84 82 82 83 79 68 53 37 22 10 5 3 1 0 0 0 0 0 0 0 0 0 0 0 0 0 0 0 0 0 0 0 0
18 10 11 28 48 64 77 85 84 76 67 60 57 57 53 42 31 21 11 5 3 2 1 0 0 0 0 0 0 0 0 0 0 0 0 0 0 0 0 0 0 0 0
27 15 10 26 47 63 74 81 79 65 46 33 26 23 21 17 12 8 5 2 1 1 0 0 0 0 0 0 0 0 0 0 0 0 0 0 0 0 0 0 0 0 0
30 18 12 22 37 52 65 70 64 49 29 15 7 5 4 3 2 1 1 1 0 0 0 0 0 0 0 0 0 0 0 0 0 0 0 0 0 0 0 0 0 0 0
27 18 14 19 27 35 44 47 43 34 21 10 4 2 1 0 0 0 0 0 0 0 0 0 0 0 0 0 0 0 0 0 0 0 0 0 0 0 0 0 0 0 0
20 15 13 17 22 24 24 25 25 21 15 9 5 2 1 0 0 0 0 0 0 0 0 0 0 0 0 0 0 0 0 0 0 0 0 0 0 0 0 0 0 0 0
14 11 9 12 16 16 14 12 12 11 8 6 4 2 1 0 0 0 0 0 0 0 0 0 0 0 0 0 0 0 0 0 0 0 0 0 0 0 0 0 0 0 0
11 10 8 7 8 10 8 6 5 4 3 3 2 1 0 0 0 0 0 0 0 0 0 0 0 0 1 1 0 0 0 1 1 1 0 0 0 0 0 0 0 0 0
10 7 6 5 5 6 5 3 2 1 1 1 0 0 0 0 0 0 0 0 0 0 0 0 0 0 1 2 1 0 1 2 2 2 1 0 0 0 0 0 1 1 0
8 5 3 3 5 5 4 1 0 0 0 0 0 1 1 1 1 0 0 0 0 0 0 0 0 0 1 2 2 1 2 3 3 3 2 0 0 0 0 0 1 2 1
7 5 2 2 3 4 3 2 1 1 2 2 1 2 3 4 2 1 1 1 0 0 0 0 0 0 1 3 4 4 4 4 4 2 1 0 0 0 0 0 1 2 2
13 9 5 2 2 2 3 3 2 1 2 3 2 2 3 4 4 3 3 2 0 0 0 0 1 1 2 4 6 5 4 4 5 2 0 0 0 0 0 0 0 1 2
17 12 6 3 1 1 2 2 1 1 2 3 3 3 3 4 6 7 6 3 0 0 0 1 1 2 3 3 3 3 2 3 5 3 1 0 0 0 0 0 0 1 2
13 9 3 1 0 0 0 0 0 0 0 1 2 3 4 5 7 9 8 3 0 0 0 1 1 1 1 1 0 1 1 2 3 2 1 0 0 0 0 0 0 0 1
7 5 2 0 0 0 0 0 0 0 0 0 1 2 3 4 5 7 6 3 1 0 0 0 0 0 0 0 0 0 1 2 2 1 0 0 0 1 1 1 1 1 1
4 3 2 1 0 0 0 0 0 0 0 0 0 0 1 1 3 3 3 2 1 0 0 0 0 0 0 0 0 0 0 1 1 0 0 0 0 1 2 2 3 3 3
2 2 2 1 0 0 0 0 0 0 0 0 0 0 0 0 1 1 1 1 0 0 0 0 0 0 0 0 0 0 0 0 0 0 0 0 0 1 2 4 4 4 4
1 1 1 0 0 0 0 0 0 0 0 0 0 0 0 0 0 0 0 0 0 0 0 0 0 0 0 0 0 0 0 0 0 0 0 0 0 0 2 5 6 4 3
0 0 0 0 0 0 0 0 0 0 0 0 0 0 0 0 0 0 0 0 0 0 0 0 0 0 0 0 0 0 0 0 0 0 0 1 0 0 1 5 7 6 3
0 0 0 0 0 0 0 0 0 0 0 0 0 0 0 0 0 0 0 0 0 0 0 0 0 0 0 0 0 0 0 0 0 0 0 0 0 0 1 3 6 6 5
0 0 0 0 0 0 0 0 0 0 0 0 0 0 0 0 0 0 0 0 0 0 0 0 0 0 0 0 0 0 0 0 0 0 0 0 0 1 1 3 4 4 4
0 0 0 0 0 0 0 0 0 0 0 0 0 0 0 0 0 0 0 0 0 0 0 0 0 0 0 0 0 0 0 0 0 0 0 0 1 2 2 2 3 2 1
0 0 0 0 0 0 0 0 0 0 0 0 0 0 0 0 0 0 0 0 0 0 0 0 0 0 0 0 0 0 0 0 0 0 0 0 1 1 1 1 2 1 0
0 0 0 0 0 0 0 0 0 0 0 0 0 0 0 0 0 0 0 0 0 0 0 0 0 0 0 0 0 0 0 0 0 0 0 0 0 0 0 0 0 0 0
0 0 0 0 0 0 0 0 0 0 0 0 0 0 0 0 0 0 0 0 0 0 0 0 0 0 0 0 0 0 0 0 0 0 0 0 0 0 0 0 0 0 0

GEFSSE_con_prob3kmehi_048.txt.gz
EHI
1 1 2 3 3 5 8 17 30 43 54 61 61 57 50 41 29 15 6 1 0 0 0 0 0 0 0 0 0 0 0 0 0 0 0 0 0 0 0 0 0 0 0
2 1 1 3 5 8 10 18 35 52 59 62 62 59 52 42 28 13 4 1 0 0 0 0 0 0 0 0 0 0 0 0 0 0 0 0 0 0 0 0 0 0 0
2 1 0 2 6 10 14 23 40 57 64 65 63 57 47 34 19 8 2 0 0 0 0 0 0 0 0 0 0 0 0 0 0 0 0 0 0 0 0 0 0 0 0
2 1 1 2 4 7 13 23 36 49 55 57 53 44 31 17 8 3 1 0 0 0 0 0 0 0 0 0 0 0 0 0 0 0 0 0 0 0 0 0 0 0 0
2 3 4 3 3 5 8 14 21 29 34 35 31 23 13 6 2 1 0 0 0 0 0 0 0 0 0 0 0 0 0 0 0 0 0 0 0 0 0 0 0 0 0
3 4 6 6 4 4 4 5 7 11 14 14 11 7 3 1 0 0 0 0 0 0 0 0 0 0 0 0 0 0 0 0 0 0 0 0 0 0 0 0 0 0 0
2 3 6 7 6 6 6 5 5 5 5 4 3 1 0 0 0 0 0 0 0 0 0 0 0 0 0 0 0 0 0 0 0 0 0 0 0 0 0 0 0 0 0
1 2 5 7 7 9 10 10 8 6 4 3 2 1 0 0 0 0 0 0 0 0 0 0 0 0 0 0 0 0 0 0 0 0 0 0 0 0 0 0 0 0 0
0 1 2 4 5 7 10 11 10 8 5 3 2 1 0 0 0 0 0 0 0 0 0 0 0 0 0 0 0 1 1 0 0 0 0 0 0 0 0 0 0 0 0
1 0 1 2 2 2 4 8 9 7 5 4 2 1 0 0 0 1 2 2 1 1 1 0 0 0 0 0 1 2 1 0 0 0 0 1 0 0 0 0 0 0 0
2 2 2 2 1 0 2 4 6 6 6 5 2 1 0 1 2 4 5 6 4 2 2 1 0 0 0 0 2 2 1 0 0 0 3 5 3 0 0 0 0 0 0
4 4 3 4 3 2 3 5 5 6 5 4 3 3 3 5 6 7 9 10 7 3 2 3 3 2 2 4 5 4 1 0 0 0 7 13 8 1 0 0 0 0 0
9 6 5 6 7 7 8 7 6 6 5 3 3 5 8 10 10 11 13 14 11 7 7 9 9 7 6 9 11 8 4 3 2 2 12 21 14 2 0 0 0 0 0
17 12 8 9 12 13 11 8 6 6 4 2 3 5 9 11 12 15 19 20 17 15 15 16 14 11 10 11 12 10 10 10 7 7 19 29 19 5 0 0 0 0 0
24 18 11 11 14 14 11 7 4 4 3 2 3 5 7 9 10 14 19 19 18 21 20 16 13 12 11 10 8 8 12 14 12 13 23 32 26 11 3 1 0 0 0
25 18 11 10 11 11 8 4 2 2 1 1 2 3 5 6 7 9 12 13 13 16 16 12 10 9 9 7 4 4 7 10 12 15 21 29 27 16 7 2 0 1 1
19 14 10 7 6 6 5 2 1 0 0 0 1 1 2 3 4 4 5 7 6 7 8 7 5 5 5 3 1 2 4 6 8 11 16 22 22 16 9 3 3 4 4
12 11 8 5 3 2 2 1 0 0 0 0 0 0 0 1 1 1 2 2 2 1 3 2 2 2 2 1 0 1 3 5 6 6 9 14 18 16 11 7 7 8 7
7 6 5 3 1 0 0 0 0 0 0 0 0 0 0 0 0 0 0 0 0 1 1 1 0 1 1 1 0 0 1 2 3 3 3 7 13 15 13 12 11 8 5
3 3 3 2 1 0 0 0 0 0 0 0 0 0 0 0 0 0 0 0 0 0 0 0 0 0 0 0 0 0 0 0 1 1 1 5 9 10 9 11 13 11 7
1 1 1 1 1 1 0 0 0 0 0 0 0 0 0 0 0 0 0 0 0 0 0 0 0 0 0 0 0 0 0 0 0 0 1 3 5 5 4 7 14 17 16
0 0 1 2 3 3 1 1 0 0 0 0 0 0 0 0 0 0 0 0 0 0 0 0 0 0 0 0 0 0 0 0 0 0 0 1 2 2 2 3 10 16 17
0 1 3 7 8 7 5 2 1 0 0 0 0 0 0 0 0 0 0 0 0 0 0 0 0 0 0 0 0 0 0 0 0 0 0 0 1 1 1 1 4 10 12
0 2 7 12 16 14 10 4 1 0 0 0 0 0 0 0 0 0 0 0 0 0 0 0 0 0 0 0 0 0 0 0 0 0 0 0 0 0 0 0 2 7 11
1 3 9 18 23 20 12 6 2 1 0 0 0 0 0 0 0 0 0 0 0 0 0 0 0 0 0 0 0 0 0 0 0 0 0 0 0 0 0 0 2 6 10
2 4 10 20 26 22 12 6 3 1 0 0 0 0 0 0 0 0 0 0 0 0 0 0 0 0 0 0 0 0 0 0 0 0 0 0 0 0 0 0 2 5 7

GEFSSE_con_prob3kmehi_054.txt.gz
EHI
32 24 23 22 14 6 1 0 0 0 0 0 0 0 1 0 0 0 0 0 0 0 0 0 0 0 0 0 0 0 0 0 0 0 0 0 0 0 0 0 0 0 0
31 23 22 23 16 8 3 0 0 0 0 1 2 3 2 1 0 0 0 0 0 0 0 0 0 0 0 0 0 0 0 0 0 0 0 0 0 0 0 0 0 0 0
18 14 17 22 19 12 7 3 2 3 4 6 7 7 5 2 1 1 0 0 0 0 0 0 0 0 0 0 0 0 0 0 0 0 0 0 0 0 0 0 0 0 0
6 7 12 17 16 12 10 8 8 10 13 15 14 11 8 4 3 2 1 0 0 0 0 0 0 0 0 0 0 0 0 0 1 2 1 0 0 0 0 0 0 0 0
8 7 10 13 12 9 8 10 12 14 16 18 16 12 8 5 3 2 1 0 0 0 0 0 0 0 0 0 0 0 0 2 4 4 2 0 0 0 0 0 0 0 0
17 10 8 10 8 5 5 7 9 9 10 11 10 8 5 3 1 1 0 0 0 0 0 0 0 0 0 0 0 0 0 3 7 5 3 3 2 1 0 0 0 0 0
32 17 8 8 8 5 4 4 4 4 4 4 3 2 1 1 0 0 0 0 0 0 0 0 0 0 0 0 0 0 0 3 6 4 4 7 6 3 2 0 0 0 0
47 27 10 7 7 7 6 4 3 3 2 1 1 0 0 0 0 0 0 0 0 0 0 0 0 0 0 0 0 0 0 1 3 2 5 11 11 8 5 1 0 0 0
50 29 9 5 5 6 6 4 2 1 1 0 0 0 0 0 0 0 0 0 0 0 0 0 0 0 0 0 0 0 0 0 1 1 7 18 22 17 9 3 0 0 0
47 31 15 7 3 3 4 2 1 0 0 0 0 1 2 1 1 1 2 1 1 1 0 0 0 0 0 1 1 0 0 0 0 2 15 32 38 28 16 6 1 0 0
53 45 32 21 11 6 4 2 1 0 0 0 1 2 3 2 2 4 6 5 4 3 2 0 0 0 1 3 4 3 2 0 0 8 31 53 54 41 25 12 4 1 0
64 56 46 37 30 22 15 8 5 3 2 2 3 4 4 4 5 9 14 14 9 6 5 5 3 1 2 5 9 9 5 1 0 12 45 70 68 52 35 18 9 4 2
69 59 50 50 51 45 33 21 13 9 5 5 6 6 7 11 14 20 26 24 16 11 12 13 10 6 4 7 11 11 5 1 0 14 48 76 76 62 46 29 16 9 6
74 65 58 60 62 58 45 28 16 10 7 7 7 7 10 15 21 28 33 30 23 18 18 20 16 11 7 8 10 8 5 3 3 14 45 71 75 68 56 42 26 16 12
79 74 68 63 59 52 39 23 12 8 6 5 6 8 10 12 17 22 27 29 25 21 21 22 19 14 10 9 8 6 7 6 5 16 42 63 71 69 63 54 40 24 17
82 77 66 53 43 33 21 12 7 5 3 2 3 4 5 6 8 11 15 21 22 19 18 19 18 15 11 8 6 5 6 6 6 14 34 55 64 67 67 64 54 39 27
78 70 53 37 27 17 8 5 4 3 1 0 0 1 1 2 4 5 8 14 17 15 12 13 14 13 10 7 6 4 4 5 6 9 22 40 51 55 60 64 61 52 42
69 61 44 29 19 12 5 2 2 1 0 0 0 0 0 0 1 3 5 9 11 9 8 9 10 12 10 8 6 4 4 5 5 5 10 20 30 38 45 51 53 50 46
59 54 42 28 16 8 4 2 1 1 0 0 0 0 0 0 0 1 2 3 4 4 5 6 9 9 8 7 4 2 3 4 4 4 4 7 15 25 30 34 37 36 33
46 44 35 23 13 6 3 2 2 1 1 0 0 0 0 0 0 0 0 0 0 1 3 4 5 5 4 3 1 0 1 2 2 2 3 3 8 14 18 21 26 26 23
29 30 24 16 10 6 4 4 4 4 2 1 0 0 0 0 0 0 0 0 0 0 1 1 1 1 1 1 0 0 1 1 0 1 2 2 3 6 9 13 20 23 22
16 18 17 15 14 13 11 9 7 5 4 2 1 0 0 0 0 0 0 0 0 0 0 0 0 0 0 0 0 0 0 0 0 0 1 1 1 2 5 7 12 17 18
10 12 18 27 32 29 24 15 7 4 3 2 1 0 0 0 0 0 0 0 0 0 0 0 0 0 0 0 0 0 0 0 0 0 0 0 0 0 1 3 5 7 8
7 14 32 51 56 50 37 21 8 3 1 1 1 1 1 0 0 0 0 0 0 0 0 0 0 0 0 0 0 0 0 0 0 0 0 0 0 0 0 1 2 3 3
9 21 48 71 75 66 49 29 13 4 1 0 1 2 1 0 0 0 0 0 0 0 0 0 0 0 0 0 0 0 0 0 0 0 0 0 0 0 0 0 1 2 3
12 24 53 78 83 73 55 34 17 7 1 0 1 1 0 0 0 0 0 0 0 0 0 0 0 0 0 0 0 0 0 0 0 0 0 0 0 0 0 0 1 2 3

GEFSSE_con_prob3kmehi_060.txt.gz
EHI
5 9 18 28 31 30 26 16 6 1 0 0 0 0 0 0 0 0 0 0 0 0 0 0 0 0 0 0 0 0 0 0 0 0 0 1 2 2 1 0 0 0 0
22 22 27 33 32 28 25 18 8 1 0 0 0 0 0 0 0 0 0 0 0 0 0 0 0 0 0 0 0 0 0 0 0 0 0 0 1 1 0 0 0 0 0
53 43 41 45 40 31 26 19 9 2 0 0 0 0 0 0 0 0 0 0 0 0 0 0 0 0 0 0 0 0 0 0 0 0 0 0 0 0 0 0 0 0 0
70 59 56 62 57 44 35 25 13 5 2 1 0 0 0 0 0 0 0 0 0 0 0 0 0 0 0 0 0 0 0 0 0 0 0 0 0 0 0 0 0 0 0
67 62 66 73 70 60 51 40 27 16 8 3 1 0 0 0 0 0 0 0 0 0 0 0 0 0 0 0 0 0 0 0 0 0 0 0 0 0 0 0 1 0 0
56 55 62 72 74 71 65 55 41 27 15 7 2 1 0 0 0 0 0 0 0 0 0 0 0 0 0 0 0 0 0 0 0 0 0 0 0 0 0 0 1 0 0
42 41 50 65 72 71 66 55 42 28 16 7 3 1 0 0 0 0 0 0 0 0 0 0 0 0 0 0 0 0 0 0 0 0 0 0 0 1 1 1 1 1 0
31 30 37 50 57 57 50 38 28 20 11 5 3 1 0 0 0 0 0 0 0 0 0 0 0 0 0 0 0 0 0 1 0 0 0 0 1 3 4 3 2 1 0
22 22 24 28 31 31 27 20 15 11 7 3 1 0 0 0 0 0 0 0 0 0 0 0 0 0 0 0 0 0 0 0 0 0 0 0 2 5 7 6 3 2 1
11 13 12 11 11 12 11 10 8 6 3 1 0 0 0 0 0 0 0 0 0 0 1 1 1 0 0 0 0 0 0 0 0 0 0 2 5 10 11 8 6 3 1
5 5 5 5 5 4 4 5 4 3 1 0 0 0 0 0 0 0 0 1 1 1 2 2 1 0 0 0 0 0 1 1 1 0 0 4 12 18 18 14 9 5 2
7 4 2 3 2 2 3 3 1 1 0 0 0 0 0 0 0 0 0 2 3 3 3 2 1 0 0 0 0 0 1 1 1 0 2 8 19 26 24 19 14 8 4
16 11 6 3 3 3 2 1 0 0 0 0 0 0 0 0 0 0 0 1 3 3 2 1 1 0 0 0 0 0 0 0 0 0 3 12 22 27 23 20 17 12 7
32 25 15 8 5 3 1 0 0 0 0 0 0 0 0 0 0 0 0 0 1 1 1 1 1 0 0 0 0 0 0 0 0 0 3 11 20 23 20 16 15 12 9
47 37 23 12 6 3 1 0 0 0 0 0 0 0 0 0 0 0 0 0 0 0 0 0 0 0 0 1 0 0 0 0 0 0 2 7 13 17 16 14 12 10 9
47 38 24 13 7 4 2 1 0 0 0 0 0 0 0 0 0 0 0 0 0 0 0 0 0 0 0 0 0 0 0 0 0 0 1 3 6 8 10 10 10 9 8
37 29 18 10 6 4 2 1 0 0 0 0 0 0 0 0 0 0 0 0 0 0 0 0 0 0 0 0 0 0 0 0 0 0 1 1 1 2 3 5 7 7 7
23 17 9 5 3 2 1 0 0 0 0 0 0 0 0 0 0 0 0 0 0 0 0 0 0 0 0 0 0 0 0 0 0 0 0 0 0 0 0 1 2 4 4
11 8 3 1 1 0 0 0 0 0 0 0 0 0 0 0 0 0 0 0 0 0 0 0 0 0 0 0 0 0 0 0 0 0 0 0 0 0 0 0 0 1 1
4 3 1 0 0 0 0 0 0 0 0 0 0 0 0 0 0 0 0 0 0 0 0 0 0 0 0 0 0 0 0 0 0 0 0 0 0 0 0 0 0 0 0
2 1 0 0 0 0 0 0 0 0 0 0 0 0 0 0 0 0 0 0 0 0 0 0 0 0 0 0 0 0 0 0 0 0 0 0 0 0 0 0 0 0 0
1 0 0 0 0 0 0 0 0 0 0 0 0 0 0 0 0 0 0 0 0 0 0 0 0 0 0 0 0 0 0 0 0 0 0 0 0 0 0 0 0 0 0
0 0 0 0 0 0 0 0 0 0 0 0 0 0 0 0 0 0 0 0 0 0 0 0 0 0 0 0 0 0 0 0 0 0 0 0 0 0 0 0 0 0 0
0 0 0 0 0 0 0 0 0 0 0 0 0 0 0 0 0 0 0 0 0 0 0 0 0 0 0 0 0 0 0 0 0 0 0 0 0 0 0 0 0 0 0
0 0 1 1 1 0 0 0 0 0 0 0 0 0 0 0 0 0 0 0 0 0 0 0 0 0 0 0 0 0 0 0 0 0 0 0 0 0 0 0 0 0 0
0 1 2 2 1 1 1 1 0 0 0 0 0 0 0 0 0 0 0 0 0 0 0 0 0 0 0 0 0 0 0 0 0 0 0 0 0 0 0 0 0 0 0

GEFSSE_con_prob3kmehi_066.txt.gz
EHI
1 3 6 18 36 50 52 51 48 42 33 24 16 9 5 4 2 1 0 0 0 0 0 0 0 0 0 0 0 0 0 0 0 0 0 0 0 0 0 0 0 0 0
8 6 9 21 39 51 52 49 45 38 26 16 9 6 3 3 2 1 0 0 0 0 0 0 0 0 0 0 0 0 0 0 0 0 0 0 0 0 0 0 0 0 0
21 14 13 27 45 54 53 50 45 34 20 10 6 3 2 1 1 0 0 0 0 0 0 0 0 0 0 0 0 0 0 0 0 0 0 0 0 0 0 0 0 0 0
32 22 20 36 52 58 58 55 49 34 19 11 8 4 1 0 0 0 0 0 0 0 0 0 0 0 0 0 0 0 0 0 0 0 0 0 0 0 0 0 0 0 0
40 30 30 47 60 64 63 59 50 34 20 13 8 4 1 0 0 0 0 0 0 0 0 0 0 0 0 0 0 0 0 0 0 0 0 0 0 0 0 0 0 0 0
48 41 43 58 68 66 63 59 50 33 20 13 8 4 1 0 0 0 0 0 0 0 0 0 0 0 0 0 0 0 0 1 0 0 0 0 0 0 0 0 0 0 0
57 50 51 63 70 66 63 60 50 33 20 13 7 3 1 0 0 0 0 0 0 0 0 0 0 0 0 0 0 0 0 0 0 0 0 0 0 0 0 0 0 0 0
59 53 51 59 65 64 62 57 46 30 18 11 5 2 1 0 0 0 0 0 0 0 0 0 0 0 0 0 0 0 0 0 0 0 0 0 0 0 0 0 0 0 0
53 52 50 49 50 51 50 45 34 23 14 8 4 1 0 0 0 0 0 0 0 0 0 0 0 0 0 0 1 1 0 0 0 0 0 0 0 0 0 0 0 0 0
42 43 41 37 34 32 32 29 23 17 11 7 4 2 1 0 0 0 0 0 0 0 0 0 0 0 0 0 1 2 1 0 0 0 0 0 0 0 0 0 0 0 0
26 27 26 25 25 24 22 19 15 12 8 6 4 3 2 0 0 0 0 1 1 0 0 0 0 0 0 0 1 1 1 0 0 0 0 0 0 0 0 0 0 0 0
11 13 14 17 20 21 18 12 9 7 5 3 2 1 1 0 0 0 1 2 2 0 0 0 0 0 0 0 0 0 0 0 0 0 0 0 0 0 0 0 0 0 0
4 5 9 13 14 13 10 7 5 3 1 1 0 0 0 0 0 0 0 1 1 0 0 0 0 0 0 0 0 0 0 0 0 0 0 1 1 0 0 1 1 1 1
2 3 7 10 8 4 4 4 3 1 0 0 0 0 0 0 0 0 0 0 0 0 0 0 0 0 1 0 0 0 0 1 1 0 0 1 2 1 1 2 2 1 1
2 3 5 6 3 1 1 1 1 0 0 0 0 0 0 0 0 0 0 0 0 0 0 0 0 0 0 0 0 0 0 1 1 0 0 1 2 2 2 2 2 1 1
3 4 5 3 1 0 0 0 0 0 0 0 0 0 0 0 0 0 0 0 0 0 0 0 0 0 0 0 0 0 0 0 0 0 0 1 2 3 3 2 1 1 1
4 4 4 3 1 0 0 0 0 0 0 0 0 0 0 0 0 0 0 0 0 0 0 0 0 0 0 0 0 0 0 0 0 0 0 1 2 3 2 2 1 0 0
6 5 4 2 1 0 0 0 0 0 0 0 0 0 0 0 0 0 0 0 0 0 0 0 0 0 0 0 0 0 0 0 0 0 0 0 1 1 1 1 1 0 0
7 5 3 1 0 0 0 0 0 0 0 0 0 0 0 0 0 0 0 0 0 0 0 0 0 0 0 0 0 0 0 0 0 0 0 0 0 0 0 1 1 0 0
5 3 1 0 0 0 0 0 0 0 0 0 0 0 0 0 0 0 0 0 0 0 0 0 0 0 0 0 0 0 0 0 0 0 0 0 0 0 0 0 0 0 0
2 1 0 0 0 0 0 0 0 0 0 0 0 0 0 0 0 0 0 0 0 0 0 0 0 0 0 0 0 0 0 0 0 0 0 0 0 0 0 0 0 0 0
1 0 0 0 0 0 0 0 0 0 0 0 0 0 0 0 0 0 0 0 0 0 0 0 0 0 0 0 0 0 0 0 0 0 0 0 0 0 0 0 0 0 0
0 0 0 0 0 0 0 0 0 0 0 0 0 0 0 0 0 0 0 0 0 0 0 0 0 0 0 0 0 0 0 0 0 0 0 0 0 0 0 0 0 0 0
0 0 0 0 0 0 0 0 0 0 0 0 0 0 0 0 0 0 0 0 0 0 0 0 0 0 0 0 0 0 0 0 0 0 0 0 0 0 0 0 0 0 0
0 0 0 0 0 0 0 0 0 0 0 0 0 0 0 0 0 0 0 0 0 0 0 0 0 0 0 0 0 0 0 0 0 0 0 0 0 0 0 0 0 0 0
0 0 0 0 0 0 0 0 0 0 0 0 0 0 0 0 0 0 0 0 0 0 0 0 0 0 0 0 0 0 0 0 0 0 0 0 0 0 0 0 0 0 0

GEFSSE_con_prob3kmehi_072.txt.gz
EHI
2 4 5 4 3 6 19 35 43 43 40 32 22 11 4 1 0 0 0 0 0 0 0 0 0 0 0 0 0 0 0 0 0 0 0 0 0 0 0 0 0 0 0
4 6 6 3 2 6 18 33 41 41 36 27 17 8 4 1 1 0 0 0 0 0 0 0 0 0 0 0 0 0 0 0 0 0 0 0 0 0 0 0 0 0 0
5 7 6 3 3 7 18 29 36 36 31 21 12 6 3 2 1 0 0 0 0 0 0 0 0 0 0 0 0 0 0 0 0 0 0 0 0 0 0 0 0 0 0
5 6 6 4 3 8 18 25 30 31 26 17 10 5 3 3 1 0 0 0 0 0 0 0 0 0 0 0 0 0 0 0 0 0 0 0 0 0 0 0 0 0 0
4 5 6 5 5 7 15 21 24 24 19 13 9 5 3 2 1 0 0 0 0 0 0 0 0 0 0 0 0 0 0 1 2 1 0 0 0 0 0 0 0 0 0
3 3 5 7 7 9 14 19 20 18 13 9 7 5 3 2 0 0 0 0 0 0 0 0 0 0 0 0 0 0 0 2 3 2 0 0 0 0 0 0 0 0 0
1 2 5 10 12 13 17 20 20 16 11 7 5 4 2 1 0 0 0 0 0 0 0 0 0 0 0 0 0 0 1 2 3 1 0 0 0 0 0 0 0 0 0
0 1 6 11 12 14 18 22 22 19 13 7 4 3 1 1 0 0 0 0 0 0 0 0 0 0 0 0 0 0 1 1 1 0 0 0 0 0 0 0 0 0 0
0 1 5 6 6 8 13 18 20 19 14 8 5 3 1 1 0 0 0 0 0 0 0 0 0 0 0 0 0 0 0 0 0 0 0 0 0 0 0 0 0 0 0
1 1 2 1 1 2 5 9 13 13 10 7 5 3 2 1 0 0 0 0 0 0 0 0 0 1 1 0 0 0 0 0 0 0 0 0 1 0 0 0 0 0 0
4 2 1 1 2 1 1 3 5 5 5 4 3 2 1 1 0 0 1 1 1 0 0 0 1 1 1 0 0 0 0 0 0 0 0 0 0 0 0 0 0 0 0
11 7 4 3 3 2 2 3 2 2 2 2 1 1 1 0 0 1 2 2 1 0 0 0 1 1 1 0 0 0 0 0 0 0 0 0 0 0 0 0 0 0 1
17 13 9 6 5 4 4 5 4 2 2 2 2 1 1 0 0 0 1 1 1 0 0 0 0 0 0 0 0 0 0 0 0 1 2 1 0 0 0 0 1 1 1
21 18 13 11 10 9 8 7 5 2 2 3 3 2 1 0 0 0 0 0 0 0 0 0 0 0 0 0 0 0 0 0 0 2 3 2 0 0 0 0 0 0 1
23 22 20 17 14 12 11 7 3 2 3 3 3 1 0 0 0 0 0 0 0 0 0 0 0 0 1 1 1 1 0 0 0 2 3 2 1 1 1 1 0 0 0
24 25 24 21 16 12 9 6 2 3 4 3 1 0 0 0 0 0 0 0 0 0 0 0 0 1 2 3 3 2 1 0 1 1 1 1 1 3 4 2 1 1 1
24 24 23 20 15 10 6 4 3 3 3 1 0 0 0 0 0 0 0 0 0 0 0 0 0 1 3 4 3 3 1 1 1 1 1 1 1 2 3 2 2 2 3
23 22 21 17 13 7 4 3 3 3 2 1 0 0 0 0 0 0 0 0 0 0 0 0 0 1 2 2 2 2 2 2 2 1 1 1 1 2 2 2 2 3 4
21 21 19 15 9 6 4 4 4 3 1 0 0 0 0 0 0 0 0 0 0 0 0 0 0 1 1 1 1 1 1 1 1 1 0 1 1 2 2 2 2 3 3
18 17 15 11 7 6 6 4 3 2 1 0 0 0 0 0 0 0 0 0 0 0 0 0 0 0 0 0 0 0 0 0 0 0 0 0 1 1 2 2 2 1 1
16 14 10 7 6 6 4 3 2 1 0 0 0 0 0 0 0 0 0 0 0 0 0 0 0 0 0 0 0 0 0 0 0 0 0 0 0 0 1 1 0 0 0
13 10 6 4 5 4 2 1 1 0 0 0 0 0 0 0 0 0 0 0 0 0 0 0 0 0 0 0 0 0 0 0 0 0 0 0 0 0 0 0 0 0 0
8 6 3 3 3 2 1 0 0 0 0 0 0 0 0 0 0 0 0 0 0 0 0 0 0 0 0 0 0 0 0 0 0 0 0 0 0 0 0 0 0 0 0
4 3 2 2 1 0 0 0 0 0 0 0 0 0 0 0 0 0 0 0 0 0 0 0 0 0 0 0 0 0 0 0 0 0 0 0 0 0 0 0 0 0 0
4 3 2 1 0 0 0 0 0 0 0 0 0 0 0 0 0 0 0 0 0 0 0 0 0 0 0 0 0 0 0 0 0 0 0 0 0 0 0 0 0 0 0
4 4 3 1 0 0 0 0 0 0 0 0 0 0 0 0 0 0 0 0 0 0 0 0 0 0 0 0 0 0 0 0 0 0 0 0 0 0 0 0 0 0 0

GEFSSE_con_prob3kmehi_078.txt.gz
EHI
45 41 40 27 8 2 1 0 1 2 2 1 0 0 0 0 0 0 0 0 0 0 0 0 0 0 0 0 0 0 0 0 1 1 1 0 0 0 1 0 0 0 0
50 46 44 31 12 3 1 1 1 2 3 2 0 0 0 0 0 0 0 0 0 0 0 0 0 0 0 0 0 0 0 0 0 1 0 0 0 1 1 1 0 0 0
45 43 40 31 15 5 2 2 3 4 3 2 0 0 0 0 0 0 0 0 0 0 0 0 0 0 0 0 0 0 0 0 0 1 0 0 0 1 2 1 0 0 0
31 31 31 27 16 6 2 3 5 5 4 2 0 0 0 0 0 0 0 0 0 0 0 0 0 0 0 0 0 0 0 1 1 1 0 0 0 1 2 2 1 0 0
20 24 27 23 15 7 4 4 5 5 3 1 0 0 0 0 0 0 0 0 0 0 0 0 0 0 0 0 0 0 1 2 2 1 0 0 0 1 2 2 1 0 0
18 20 22 20 15 8 4 4 4 3 1 0 0 0 0 0 0 0 0 0 0 0 0 0 0 0 0 0 0 0 1 4 5 2 0 0 0 1 2 2 1 0 0
21 17 17 20 17 9 4 2 1 1 0 0 0 0 0 0 0 0 0 0 0 0 0 0 0 0 0 0 0 0 2 6 6 3 2 2 1 1 1 1 0 0 0
28 21 16 18 16 10 4 1 0 0 0 0 0 0 0 0 0 0 0 0 0 0 0 0 0 0 0 0 0 0 2 5 5 3 4 3 1 1 1 0 0 0 0
35 25 14 10 11 8 4 1 0 0 0 0 0 0 0 0 0 0 0 0 0 0 0 0 0 0 0 0 0 0 3 5 3 4 5 4 2 2 1 0 0 0 0
41 27 10 4 4 4 2 0 0 0 0 0 0 0 0 0 0 0 0 0 0 0 0 0 0 0 0 0 0 1 4 4 3 4 5 3 3 3 1 0 0 0 0
46 33 17 9 4 1 0 0 0 0 0 0 0 0 0 0 0 0 1 1 0 0 0 0 0 0 0 0 0 1 3 2 2 3 3 3 4 3 1 0 0 0 0
48 41 33 22 12 7 5 4 1 1 1 0 0 0 0 0 0 1 2 2 1 0 0 0 0 0 0 0 0 1 1 1 1 2 3 4 5 4 2 1 0 0 0
53 51 47 40 32 25 19 10 4 2 2 2 2 2 1 2 2 3 4 2 1 1 0 0 0 1 1 1 1 0 0 0 1 2 3 5 6 5 4 2 0 0 0
66 64 62 62 60 54 41 23 11 7 5 5 6 5 5 6 6 7 5 3 2 2 1 1 2 3 3 3 3 1 0 0 1 3 3 4 5 5 5 3 1 0 0
74 75 78 81 78 72 59 40 26 18 12 9 8 8 7 7 7 6 4 4 5 5 5 5 5 4 4 4 4 3 1 1 3 4 3 2 4 4 4 2 1 0 0
74 76 82 84 79 71 59 48 35 24 17 10 7 6 5 6 5 4 3 4 7 8 8 7 6 4 3 3 3 2 2 4 6 8 6 3 3 3 3 2 2 1 1
75 76 75 73 70 62 51 41 30 21 14 9 5 4 4 5 4 3 3 4 6 6 5 4 4 4 3 2 1 1 3 5 8 9 8 5 3 3 3 3 4 5 5
73 71 66 61 60 56 47 36 26 20 15 9 5 4 4 4 3 2 2 3 3 3 1 1 3 4 3 3 2 2 3 4 7 8 7 5 5 4 3 3 5 8 9
62 61 58 56 54 48 40 32 25 22 16 8 4 3 3 2 2 1 1 2 1 1 1 2 4 4 3 3 2 2 3 4 6 6 4 4 5 6 3 1 4 8 10
51 52 53 52 48 40 31 25 20 16 11 6 4 3 2 1 1 0 0 0 0 1 2 3 3 2 1 1 1 1 2 3 5 4 2 2 4 4 2 1 1 4 6
46 46 45 44 39 33 26 20 14 9 6 3 2 2 1 0 0 0 0 0 1 1 2 2 1 0 0 0 0 0 0 1 2 2 2 1 1 2 1 0 0 1 2
40 39 38 36 32 28 23 17 11 7 4 1 1 2 1 0 0 0 0 0 1 1 1 0 0 0 0 0 0 0 0 0 1 1 1 1 0 1 0 0 0 0 0
31 31 31 31 30 27 21 14 9 6 3 2 2 2 1 1 0 0 0 0 0 0 0 0 0 0 0 0 0 0 0 0 0 0 0 0 0 0 0 0 0 1 1
21 21 24 29 32 29 22 12 7 4 2 2 3 4 3 2 1 0 0 0 0 0 0 0 0 0 0 0 0 0 0 0 0 0 0 0 0 0 0 0 0 1 1
15 15 20 28 32 29 21 13 7 4 3 2 4 5 4 2 1 0 0 0 0 0 0 0 0 0 0 0 0 0 0 0 0 0 0 0 0 0 0 0 0 0 1
15 14 18 26 29 26 20 13 8 5 3 2 4 5 3 2 1 0 0 0 0 0 0 0 0 0 0 0 0 0 0 0 0 0 0 0 0 0 0 0 0 0 0

GEFSSE_con_prob3kmehi_084.txt.gz
EHI
9 16 29 35 30 23 16 8 2 0 0 0 0 0 0 0 0 0 0 0 0 0 0 0 0 0 0 0 0 0 0 0 0 0 0 0 1 1 1 1 2 1 0
20 24 34 40 35 28 18 7 2 0 0 0 0 0 0 0 0 0 0 0 0 0 0 0 0 0 0 0 0 0 0 0 0 0 0 0 0 0 0 1 1 1 0
39 36 41 47 44 34 20 9 2 0 0 0 0 0 0 0 0 0 0 0 0 0 0 0 0 0 0 0 0 0 0 0 0 0 0 0 0 0 0 0 0 0 0
52 45 46 53 50 38 23 12 4 1 0 0 0 0 0 0 0 0 0 0 0 0 0 0 0 0 0 0 0 0 0 0 0 0 0 0 0 0 0 0 0 0 0
56 51 51 56 51 38 24 14 6 2 1 0 0 0 0 0 0 0 0 0 0 0 0 0 0 0 0 0 0 0 0 0 0 0 0 0 0 0 0 0 0 0 0
60 55 54 57 50 35 22 13 6 2 1 0 0 0 0 0 0 0 0 0 0 0 0 0 0 0 0 0 0 0 0 0 0 0 0 0 0 0 0 0 0 0 0
63 58 55 56 48 30 17 11 5 1 0 0 0 0 0 0 0 0 0 0 0 0 0 0 0 0 0 0 1 1 1 0 0 0 0 0 0 0 0 0 0 0 0
65 60 54 49 40 26 15 9 5 1 0 0 0 0 0 0 0 0 0 0 0 0 0 0 0 0 0 0 1 1 1 0 0 0 0 0 0 0 0 0 0 0 0
65 60 50 39 30 21 13 8 5 1 0 0 0 0 0 0 0 0 0 0 0 0 0 0 0 0 0 0 0 1 1 1 0 0 0 0 1 1 1 1 1 0 0
55 53 46 35 26 17 10 6 3 1 0 0 0 0 0 0 0 0 0 0 0 0 0 0 0 0 0 0 0 1 1 1 0 0 0 1 2 1 1 2 2 1 0
41 41 39 33 24 14 8 5 2 1 0 0 0 0 0 0 0 0 0 0 0 0 0 0 0 0 0 0 0 1 1 1 0 0 0 1 2 1 1 2 2 1 0
33 31 28 24 18 12 10 7 3 0 0 0 0 0 0 0 0 0 0 0 0 0 0 0 0 0 0 0 0 0 0 1 1 0 0 1 1 2 1 2 2 1 0
32 26 17 12 10 9 9 8 3 0 0 0 0 0 0 0 0 0 0 0 0 0 0 0 0 0 0 0 0 0 0 0 0 0 0 1 3 4 3 2 2 1 0
34 25 12 7 6 5 6 5 2 0 0 0 0 0 0 0 0 0 0 0 0 0 0 0 0 0 0 0 0 0 0 0 0 0 0 2 6 7 4 3 2 1 0
39 29 16 9 5 4 5 3 1 0 0 0 0 0 0 0 0 0 0 0 0 0 0 0 0 0 0 0 0 0 0 0 0 0 0 2 5 6 3 2 1 1 0
46 38 24 12 6 5 5 3 1 0 0 0 0 0 0 0 0 0 0 0 0 0 0 0 0 0 0 0 0 0 0 0 0 0 0 1 2 2 1 1 0 0 0
50 43 28 15 10 8 6 3 1 1 0 0 0 0 0 0 0 0 0 0 0 0 0 0 0 0 0 0 0 0 0 0 0 0 0 0 0 0 0 0 0 0 0
45 41 30 20 16 12 8 5 3 2 1 0 0 0 0 0 0 0 0 0 0 0 0 0 0 0 0 0 0 0 0 0 0 0 0 0 0 0 0 0 0 0 0
39 37 30 23 18 13 10 7 4 2 1 0 0 0 0 0 0 0 0 0 0 0 0 0 0 0 0 0 0 0 0 0 0 0 0 0 0 0 1 0 0 0 0
33 31 26 21 16 12 10 7 3 1 0 0 0 0 0 0 0 0 0 0 0 0 0 0 0 0 0 0 0 0 0 0 0 0 0 0 0 0 0 0 0 0 0
24 23 21 18 14 11 8 5 1 0 0 0 0 0 0 0 0 0 0 0 0 0 0 0 0 0 0 0 0 0 0 0 0 0 0 0 0 0 0 0 0 0 0
17 16 16 14 12 9 6 2 0 0 0 0 0 0 0 0 0 0 0 0 0 0 0 0 0 0 0 0 0 0 0 0 0 0 0 0 0 0 0 0 0 0 0
14 13 11 11 9 6 3 1 0 0 0 0 0 0 0 0 0 0 0 0 0 0 0 0 0 0 0 0 0 0 0 0 0 0 0 0 0 1 0 0 0 0 0
13 10 8 8 6 4 2 1 0 0 0 0 0 0 0 0 0 0 0 0 0 0 0 0 0 0 0 0 0 0 0 0 0 0 0 0 0 0 0 0 0 0 0
12 9 7 5 4 3 2 1 0 0 0 0 0 0 0 0 0 0 0 0 0 0 0 0 0 0 0 0 0 0 0 0 0 0 0 0 0 0 0 0 0 0 0
10 8 6 4 2 2 1 0 0 0 0 0 0 0 0 0 0 0 0 0 0 0 0 0 0 0 0 0 0 0 0 0 0 0 0 0 0 0 0 0 0 0 0

GEFSSE_con_prob3kmehi_090.txt.gz
EHI
9 10 12 18 25 31 34 32 27 27 29 25 18 11 7 4 1 0 0 0 0 0 0 0 0 0 0 0 0 0 0 0 0 0 0 0 0 0 0 0 0 0 0
21 17 17 24 30 34 35 31 24 19 19 16 11 7 5 3 1 0 0 0 0 0 0 0 0 0 0 0 0 0 0 0 0 0 0 0 0 0 0 0 0 0 0
34 25 23 30 35 37 36 31 22 12 8 7 4 2 1 1 0 0 0 0 0 0 0 0 0 0 0 0 0 0 0 0 0 0 0 0 0 0 0 0 0 0 0
39 30 27 33 38 37 36 31 20 10 5 3 1 0 0 0 0 0 0 0 0 0 0 0 0 0 0 0 0 0 0 0 0 0 0 0 0 0 0 0 0 0 0
42 34 32 39 42 38 36 29 19 9 4 1 0 0 0 0 0 0 0 0 0 0 0 0 0 0 0 0 0 0 0 0 0 0 0 0 0 0 0 0 0 0 0
47 39 38 44 43 39 36 28 18 9 3 0 0 0 0 0 0 0 0 0 0 0 0 0 0 1 1 0 0 0 0 0 0 0 0 0 0 0 0 0 0 0 0
53 47 45 47 43 37 34 26 17 8 2 0 0 0 0 0 0 0 0 0 0 0 0 1 1 1 1 0 0 1 1 0 0 0 0 0 0 0 0 0 0 0 0
65 59 54 49 41 35 29 21 13 6 2 0 0 0 0 0 0 0 0 0 0 0 0 1 1 1 1 0 0 2 2 1 0 0 0 0 0 0 0 0 0 0 0
76 73 63 52 42 33 24 16 10 4 1 0 0 0 0 0 0 0 0 0 0 0 0 1 1 0 0 0 0 1 2 1 0 0 0 0 0 0 0 0 0 0 0
79 75 67 56 46 34 22 14 7 3 1 0 0 0 0 0 0 0 0 0 0 0 0 0 0 0 0 0 0 0 1 0 0 0 0 0 0 0 0 0 0 0 0
71 67 62 58 51 37 23 12 5 2 0 0 0 0 0 0 0 0 0 0 0 0 0 0 0 0 0 0 0 0 0 0 0 0 0 0 0 0 0 0 0 0 0
62 57 53 53 52 42 28 15 7 3 2 1 0 0 0 0 0 0 0 0 0 0 0 0 0 0 0 0 0 0 0 0 0 0 0 0 0 0 0 0 0 0 0
54 50 47 49 50 42 31 21 11 6 4 2 1 0 0 0 0 0 0 0 0 0 0 0 0 0 0 0 0 0 0 0 0 0 0 0 0 0 0 0 0 0 0
44 44 45 46 44 36 28 22 13 6 3 2 1 0 0 0 0 0 0 0 0 0 0 0 0 0 0 0 0 0 0 0 0 0 0 0 0 0 0 0 0 0 0
36 38 41 39 34 27 22 18 10 4 1 1 0 0 0 0 0 0 0 0 0 0 0 0 0 0 0 0 0 0 0 0 0 0 0 1 0 0 0 0 0 0 0
29 31 32 28 23 19 14 10 6 2 1 0 0 0 0 0 0 0 0 0 0 0 0 0 0 0 0 0 0 0 0 0 0 0 0 0 0 0 0 0 0 0 0
23 23 22 20 16 12 7 3 2 1 1 0 0 0 0 0 0 0 0 0 0 0 0 0 0 0 0 0 0 0 0 0 0 1 0 0 0 0 0 0 0 0 0
20 19 17 14 10 6 2 1 0 0 0 0 0 0 0 0 0 0 0 0 0 0 0 0 0 0 0 0 0 0 0 0 0 0 0 0 0 0 0 0 0 0 0
17 17 14 10 5 2 0 0 0 0 0 0 0 0 0 0 0 0 0 0 0 0 0 0 0 0 0 0 0 0 0 0 0 0 0 0 0 0 0 0 0 0 0
14 14 12 7 2 1 1 0 0 0 0 0 0 0 0 0 0 0 0 0 0 0 0 0 0 0 0 0 0 0 0 0 0 0 0 0 0 0 0 0 0 0 0
14 12 9 6 2 2 1 0 0 0 0 0 0 0 0 0 0 0 0 0 0 0 0 0 0 0 0 0 0 0 0 0 0 0 0 0 0 0 0 0 0 0 0
13 11 9 7 4 3 2 1 0 0 0 0 0 0 0 0 0 0 0 0 0 0 0 0 0 0 0 0 0 0 0 0 0 0 0 0 0 0 0 0 0 0 0
13 11 10 8 6 4 3 2 1 0 0 0 0 0 0 0 0 0 0 0 0 0 0 0 0 0 0 0 0 0 0 0 0 0 0 0 0 0 0 0 0 0 0
13 13 12 9 6 4 3 2 1 0 0 0 0 0 0 0 0 0 0 0 0 0 0 0 0 0 0 0 0 0 0 0 0 0 0 0 0 0 0 0 0 0 0
12 12 11 8 5 3 2 1 0 0 0 0 0 0 0 0 0 0 0 0 0 0 0 0 0 0 0 0 0 0 0 0 0 0 0 0 0 0 0 0 0 0 0
9 9 8 6 4 3 1 0 0 0 0 0 0 0 0 0 0 0 0 0 0 0 0 0 0 0 0 0 0 0 0 0 0 0 0 0 0 0 0 0 0 0 0

GEFSSE_con_prob3kmehi_096.txt.gz
EHI
11 15 14 7 3 6 15 26 35 37 32 20 9 2 0 0 0 0 0 0 0 0 0 0 0 0 0 0 0 0 0 1 1 1 0 0 0 0 0 0 0 0 0
22 21 16 8 4 6 13 23 32 35 29 17 7 2 0 0 0 0 0 0 0 0 0 0 0 0 0 0 0 0 0 0 0 0 0 0 0 0 0 0 0 0 0
30 25 16 9 7 7 10 16 23 27 23 12 4 1 0 0 0 0 0 0 0 0 0 0 0 0 0 0 0 0 0 0 0 0 0 0 0 0 0 0 0 0 0
27 23 16 12 10 10 10 10 13 17 15 8 2 0 0 0 0 0 0 0 0 0 0 0 0 0 0 0 0 0 0 0 0 0 0 0 0 0 0 0 0 0 0
22 23 23 21 16 14 12 9 9 10 9 4 1 0 0 0 0 0 0 0 0 0 0 0 0 0 0 0 0 0 0 0 0 0 0 0 0 0 0 0 0 0 0
19 24 31 30 22 18 13 9 8 7 4 2 1 0 0 0 0 0 0 0 0 0 0 0 0 0 0 0 0 0 0 0 0 0 0 0 0 0 0 0 0 0 0
16 23 34 35 28 21 15 11 9 7 4 1 0 0 0 0 0 0 0 0 0 0 0 0 0 0 0 0 0 0 0 0 0 0 0 0 0 0 0 0 0 0 0
12 21 33 33 26 21 16 13 10 7 4 1 0 0 0 0 0 0 0 0 0 0 0 0 0 0 0 0 0 0 0 1 0 0 0 0 0 0 0 0 0 0 0
8 18 26 24 18 15 13 12 9 6 4 1 0 0 0 0 0 0 0 0 0 0 0 0 0 0 0 0 0 0 0 1 0 0 0 0 0 0 0 0 0 0 0
10 15 20 18 13 9 8 8 7 5 3 1 1 0 0 0 0 0 0 0 0 0 0 0 0 0 0 0 0 0 0 1 0 0 0 0 0 0 0 0 0 0 0
24 22 20 18 15 9 6 6 5 3 2 1 0 0 0 0 0 0 0 0 0 0 0 0 0 0 0 0 0 0 0 0 0 0 0 1 1 1 0 0 0 0 0
44 35 25 22 18 13 9 8 5 3 2 1 1 0 0 0 0 0 0 0 0 0 0 0 0 0 0 0 0 0 0 0 0 0 0 1 2 1 0 0 0 0 0
56 47 36 30 24 20 18 14 9 6 4 3 2 1 0 0 0 0 0 0 0 0 0 0 0 0 0 0 0 0 0 0 0 0 0 1 1 0 0 0 0 0 0
56 51 44 39 34 31 27 20 13 9 6 5 4 2 0 0 0 0 0 0 0 0 0 0 0 0 0 0 0 0 0 0 0 0 0 0 0 0 0 0 0 0 0
50 47 44 43 41 39 35 25 16 12 10 8 5 2 0 0 0 0 0 0 0 0 0 0 0 0 0 0 0 0 0 0 0 0 0 0 0 0 0 0 0 0 0
46 43 40 40 40 39 36 29 21 15 12 9 5 2 0 0 0 0 0 0 0 0 0 0 0 0 0 0 0 0 0 0 0 0 0 0 0 1 1 1 0 0 0
44 40 37 36 35 35 34 30 24 17 11 7 4 2 0 0 0 0 0 0 0 0 0 0 0 0 0 0 0 0 0 0 0 0 0 0 0 0 0 0 0 0 0
41 38 34 32 31 31 32 29 25 19 12 7 5 2 0 0 0 0 0 0 0 0 0 0 0 0 0 0 0 0 0 0 0 0 0 0 0 0 0 0 0 0 0
37 34 31 29 27 27 30 31 27 23 16 11 7 3 0 0 0 0 0 0 0 0 0 0 0 0 0 0 0 0 0 0 0 0 0 0 0 0 0 0 0 0 0
33 31 28 26 26 27 30 32 30 24 18 13 8 3 0 0 0 0 0 0 0 0 0 0 0 0 0 0 0 0 0 0 0 0 0 0 0 0 1 1 0 0 0
29 28 25 24 25 27 30 31 28 23 17 12 8 3 1 0 0 0 0 0 0 0 0 0 0 0 0 0 0 0 0 0 0 0 0 0 0 0 1 1 0 0 0
26 25 23 21 23 25 26 27 25 21 15 11 8 5 2 0 0 0 0 0 0 0 0 0 0 0 0 0 0 0 0 0 0 0 0 0 0 0 0 0 0 0 0
24 22 20 19 19 21 21 21 20 17 14 10 9 7 3 1 0 0 0 0 0 0 0 0 0 0 0 0 0 0 0 0 0 0 0 0 0 0 0 0 0 0 0
18 18 18 17 17 18 19 18 16 13 11 9 8 6 4 1 0 0 0 0 0 0 0 0 0 0 0 0 0 0 0 0 0 0 0 0 0 0 0 0 0 0 0
11 13 15 16 16 16 17 16 14 10 9 8 7 5 3 2 1 0 0 0 0 0 0 0 0 0 0 0 0 0 0 0 0 0 0 0 0 0 0 0 0 0 0
7 9 12 15 16 15 14 14 12 9 8 8 5 3 3 2 1 0 0 0 0 0 0 0 0 0 0 0 0 0 0 0 0 0 0 0 0 0 0 0 0 0 0

GEFSSE_con_prob3kmehi_102.txt.gz
EHI
56 51 52 40 16 3 1 1 0 0 0 0 0 0 0 0 0 0 0 0 0 0 0 0 0 0 0 0 0 0 1 2 2 1 0 0 0 0 1 2 1 0 0
68 60 57 46 21 5 2 1 1 0 0 0 0 0 0 0 0 0 0 0 0 0 0 0 0 0 0 0 0 0 0 1 1 0 0 0 0 0 1 2 1 0 0
72 62 57 49 28 10 5 3 1 0 0 0 0 0 0 0 0 0 0 0 0 0 0 0 0 0 0 0 0 0 0 0 0 0 0 0 0 0 0 1 1 0 0
60 53 53 49 31 14 7 4 2 0 0 0 0 0 0 0 0 0 0 0 0 0 0 0 0 0 0 0 0 0 0 0 0 0 0 0 0 0 0 0 0 0 0
51 50 53 48 31 15 7 5 3 1 0 0 0 0 0 0 0 0 0 0 0 0 0 0 0 0 0 0 0 0 0 0 0 0 0 0 0 0 0 0 0 0 0
56 52 50 45 29 15 8 5 3 1 0 0 0 0 0 0 0 0 0 0 0 0 0 0 0 0 0 0 0 0 0 0 0 0 0 0 0 0 0 0 0 0 0
62 54 47 40 27 13 7 4 2 1 0 0 0 0 0 0 0 0 0 0 0 0 0 0 0 0 0 0 0 0 0 0 0 0 0 0 0 0 0 0 0 0 0
66 57 46 37 23 12 5 2 1 0 0 0 0 0 0 0 0 0 0 0 0 0 0 0 0 0 0 0 0 0 0 1 0 1 1 1 0 0 0 0 0 0 0
70 58 42 29 18 9 4 1 0 0 0 0 0 0 0 0 0 0 0 0 0 0 0 0 0 0 0 0 0 0 0 1 1 1 2 1 0 0 0 0 0 0 0
69 54 35 23 15 7 3 1 0 0 0 0 0 0 0 0 0 0 0 0 0 0 0 0 0 0 0 0 0 0 0 0 1 2 2 1 0 0 0 0 0 0 0
67 51 33 25 18 7 3 2 0 0 0 0 0 0 0 0 0 0 0 0 0 0 0 0 0 0 0 0 1 1 1 1 1 1 1 1 1 1 0 0 0 0 0
67 54 42 34 22 10 8 7 3 1 0 0 0 0 0 0 0 0 1 0 0 0 0 0 0 0 0 0 1 2 2 1 1 0 1 2 2 1 0 0 0 0 0
66 61 55 46 32 25 23 14 7 4 1 1 1 1 1 1 2 2 1 0 0 0 0 0 0 0 0 0 1 1 1 1 1 0 1 3 3 2 0 0 0 0 0
70 69 67 61 54 51 40 22 11 7 3 4 6 5 2 3 5 7 6 3 1 1 0 0 0 1 1 0 0 0 0 1 2 1 2 3 3 2 1 0 0 0 0
79 75 75 75 73 69 55 34 20 14 10 11 13 10 6 7 12 14 12 6 4 5 4 2 1 2 1 1 1 0 1 2 4 4 3 3 3 3 2 1 0 0 0
80 76 76 78 76 70 59 44 33 24 19 20 21 17 11 15 21 20 14 7 6 9 8 3 1 2 1 0 1 1 1 2 6 8 6 3 3 3 3 2 1 0 0
77 74 71 69 68 65 57 47 39 32 29 31 33 28 20 22 25 21 12 5 5 9 8 4 1 0 0 0 1 2 2 3 7 9 6 3 2 3 4 3 1 0 0
75 72 66 61 60 60 56 49 43 41 44 45 44 35 27 25 24 17 9 5 5 6 5 3 1 0 1 1 1 1 2 4 7 8 5 4 4 5 4 2 2 1 0
71 67 62 59 57 56 54 52 50 53 57 52 43 35 29 25 20 12 8 7 5 3 2 2 2 1 1 2 1 1 2 4 5 5 4 4 6 7 4 2 2 1 0
64 61 58 57 55 51 51 52 53 55 56 49 40 34 29 22 15 10 8 7 4 1 1 2 3 2 1 1 1 0 1 3 4 4 4 3 5 6 5 3 1 0 0
62 58 54 53 50 47 49 52 51 51 49 44 38 33 26 18 12 9 8 6 2 2 2 3 2 1 0 0 0 0 1 2 3 4 4 3 3 6 8 7 4 1 1
60 56 50 47 43 42 44 47 49 48 44 40 36 31 23 16 11 8 7 5 1 1 2 2 1 1 0 0 0 0 0 1 2 2 3 4 5 7 9 9 8 5 3
56 51 46 42 39 38 39 41 42 40 36 34 35 30 23 17 13 8 6 4 2 2 2 1 1 1 0 0 0 0 0 0 0 0 1 3 6 7 6 7 8 8 7
50 45 42 40 38 35 35 35 33 30 28 30 32 30 24 18 13 9 6 6 5 3 3 2 1 1 0 0 0 0 0 0 0 0 0 1 3 4 3 3 5 8 9
43 41 40 41 38 35 32 31 29 26 26 28 30 28 22 16 11 8 7 7 5 4 3 4 4 1 0 0 0 0 0 0 0 0 0 0 1 2 3 2 3 6 8
41 38 38 40 39 35 30 28 28 27 26 28 29 25 18 12 9 7 6 6 4 3 3 4 4 1 0 0 0 0 0 0 0 0 0 0 0 1 2 2 3 6 6

GEFSSE_con_prob3kmehi_108.txt.gz
EHI
9 18 34 42 39 26 12 4 2 0 1 1 1 0 1 1 1 0 0 0 0 0 0 0 0 0 0 0 0 0 0 0 0 0 0 0 0 0 0 0 0 0 0
25 28 39 47 42 28 13 5 2 0 0 0 0 0 0 0 0 0 0 0 0 0 0 0 0 0 0 0 0 0 0 0 0 0 0 0 0 0 0 0 0 0 0
53 44 45 52 49 33 16 6 2 0 0 0 0 0 0 0 0 0 0 0 0 0 0 0 0 0 0 0 0 0 0 0 0 0 0 0 0 0 0 0 0 0 0
69 56 51 58 56 38 18 7 2 0 0 0 0 0 0 0 0 0 0 0 0 0 0 0 0 0 0 0 0 0 0 0 0 0 0 0 0 0 0 0 0 0 0
70 62 59 67 62 42 21 8 2 0 0 0 0 0 0 0 0 0 0 0 0 0 0 0 0 0 0 0 0 0 0 0 0 0 0 0 0 0 0 0 0 0 0
70 65 66 73 67 47 25 10 3 1 0 0 0 0 0 0 0 0 0 0 0 0 0 0 0 0 0 0 0 0 0 0 0 0 0 0 0 0 0 0 0 0 0
74 69 69 72 66 46 25 11 4 1 0 0 0 0 0 0 0 0 0 0 0 0 0 0 0 0 0 0 0 0 0 0 0 0 0 0 0 0 0 0 0 0 0
76 71 65 62 54 39 23 11 3 0 0 0 0 0 0 0 0 0 0 0 0 0 0 0 0 0 0 0 0 0 0 0 0 0 0 0 0 0 0 0 0 0 0
72 67 56 46 39 31 21 11 4 1 0 0 0 0 0 0 0 0 0 0 0 0 0 0 0 0 0 0 0 0 0 0 0 0 0 0 0 0 0 0 0 1 1
61 59 49 37 30 24 17 10 5 3 1 0 0 0 0 0 0 0 0 0 0 0 0 0 0 0 0 0 0 0 0 0 0 0 0 0 1 1 1 0 0 0 0
54 50 43 34 26 19 13 8 5 3 1 0 0 0 0 0 0 0 0 0 0 0 0 0 0 0 0 0 0 0 0 0 0 0 0 0 1 2 2 1 0 0 0
51 45 36 29 22 16 12 9 6 3 1 0 0 0 0 0 0 0 0 0 0 0 0 0 0 0 0 0 0 0 0 0 0 0 0 1 1 2 2 1 0 0 0
47 40 30 23 17 13 12 10 6 3 2 0 0 0 0 0 0 0 0 0 0 0 0 0 0 0 0 0 0 0 0 0 0 0 1 2 3 3 2 1 0 0 0
48 38 26 20 16 13 13 10 6 3 1 0 0 0 0 0 0 0 0 0 0 0 0 0 0 0 0 0 0 0 0 0 0 0 1 2 3 3 2 1 0 0 0
53 42 29 23 21 18 14 10 6 2 0 0 0 0 0 0 0 0 0 0 0 0 0 0 0 0 0 0 0 0 0 0 0 0 0 2 4 4 3 1 0 0 0
58 48 36 30 28 24 16 10 7 3 1 0 0 0 0 0 0 0 0 0 0 0 0 0 0 0 0 0 0 0 0 0 0 0 0 1 3 4 3 1 0 0 0
63 54 41 34 31 27 18 11 8 5 2 0 0 0 0 0 0 0 0 0 0 0 0 0 0 0 0 0 0 0 0 0 0 0 0 0 1 3 3 1 0 0 0
63 56 45 36 29 25 19 13 10 7 5 3 1 0 0 0 0 0 0 0 0 0 0 0 0 0 0 0 0 0 0 0 0 0 0 0 0 1 1 1 1 0 0
56 53 46 36 27 24 22 18 14 10 8 5 2 1 0 0 0 0 0 0 0 0 0 0 0 0 0 0 0 0 0 0 0 0 0 0 0 0 0 0 1 1 1
49 49 45 36 29 26 26 24 19 14 10 6 3 2 1 1 1 0 0 0 0 0 0 0 0 0 0 0 0 0 0 0 0 0 0 0 0 0 0 0 0 0 0
46 45 42 35 29 26 27 25 21 17 12 6 3 3 3 2 2 1 0 0 0 0 0 0 0 0 0 0 0 0 0 0 0 0 0 0 0 0 0 0 0 0 0
44 41 36 31 27 25 24 22 18 16 11 6 3 3 3 3 2 1 0 0 0 0 0 0 0 0 0 0 0 0 0 0 0 0 0 0 0 0 0 0 0 0 0
38 34 29 27 25 23 21 17 14 12 9 6 4 4 3 3 3 1 0 0 0 0 0 0 0 0 0 0 0 0 0 0 0 0 0 0 0 0 0 0 0 0 0
31 29 25 24 23 22 20 16 13 11 8 5 5 5 5 5 4 2 1 0 0 0 0 0 0 0 0 0 0 0 0 0 0 0 0 0 0 0 0 0 0 0 0
29 27 23 20 19 18 17 14 12 10 7 4 4 5 7 6 5 3 2 1 0 0 0 0 0 0 0 0 0 0 0 0 0 0 0 0 0 0 0 0 0 0 0
29 27 21 17 15 15 14 12 10 8 6 4 3 5 7 7 5 4 2 1 0 0 0 0 0 0 0 0 0 0 0 0 0 0 0 0 0 0 0 0 0 0 0

GEFSSE_con_prob3kmehi_114.txt.gz
EHI
8 10 17 23 24 23 24 27 30 30 29 24 17 11 6 2 0 0 0 0 0 0 0 0 0 0 0 0 0 0 0 0 0 0 0 0 0 0 0 0 0 0 0
16 16 23 30 30 29 27 25 25 23 21 16 11 7 3 1 0 0 0 0 0 0 0 0 0 0 0 0 0 0 0 0 0 0 0 0 0 0 0 0 0 0 0
32 27 30 38 39 35 31 24 19 15 12 9 6 2 0 0 0 0 0 0 0 0 0 0 0 0 0 0 0 0 0 0 0 0 0 0 0 0 0 0 0 0 0
44 37 38 45 45 39 31 23 18 13 8 6 4 1 0 0 0 0 0 0 0 0 0 0 0 0 0 0 0 0 0 0 0 0 0 0 0 0 0 0 0 0 0
47 42 44 51 50 40 29 21 17 12 7 3 2 0 0 0 0 0 0 0 0 0 0 0 0 0 0 0 0 0 0 0 0 0 0 0 0 0 0 0 0 0 0
50 46 51 58 53 40 29 20 16 11 6 3 1 0 0 0 0 0 0 0 0 0 0 0 0 0 0 0 0 0 0 0 0 0 0 0 0 0 0 0 0 0 0
58 53 57 61 54 42 30 21 15 10 6 3 2 1 0 0 0 0 0 0 0 0 0 0 0 0 0 0 0 0 0 0 0 0 0 0 0 0 0 0 0 0 0
65 60 58 59 52 42 33 21 13 8 5 3 2 1 0 0 0 0 0 0 0 0 0 0 0 0 0 0 0 0 0 0 0 0 0 0 0 0 0 0 0 0 0
66 63 59 55 47 38 30 19 9 5 3 2 2 1 0 0 0 0 0 0 0 0 0 0 0 0 0 0 0 0 0 0 0 0 0 0 0 0 0 0 0 0 0
65 62 58 53 43 32 22 13 6 2 1 1 1 0 0 0 0 0 0 0 0 0 0 0 0 0 0 0 0 0 0 0 0 0 0 0 0 0 0 0 0 0 0
66 60 55 50 42 30 17 8 4 2 1 0 0 0 0 0 0 0 0 0 0 0 0 0 0 0 0 0 0 0 0 0 0 0 0 0 0 0 0 0 0 0 0
66 59 50 43 37 28 17 8 5 3 1 0 0 0 0 0 0 0 0 0 0 0 0 0 0 0 0 0 0 0 0 0 0 0 0 0 0 0 0 0 0 0 0
63 57 46 37 30 23 16 10 8 5 2 0 0 0 0 0 0 0 0 0 0 0 0 0 0 0 0 0 0 0 0 0 0 0 0 0 0 0 0 0 0 0 0
54 50 43 34 26 17 12 10 8 5 1 0 0 0 0 0 0 0 0 0 0 0 0 0 0 0 0 0 0 0 0 0 0 0 0 0 0 0 0 0 0 0 0
41 42 39 32 23 14 8 7 6 4 1 0 0 0 0 0 0 0 0 0 0 0 0 0 0 0 0 0 0 0 0 0 0 0 0 0 0 0 0 0 0 0 0
32 33 34 29 20 13 8 6 5 3 1 0 0 0 0 0 0 0 0 0 0 0 0 0 0 0 0 0 0 0 0 0 0 0 0 0 0 0 0 0 0 0 0
28 27 27 24 17 12 9 8 6 3 1 0 0 0 0 0 0 0 0 0 0 0 0 0 0 0 0 0 0 0 0 0 0 0 0 0 0 0 0 0 0 0 0
30 24 20 18 15 12 10 8 6 4 1 0 0 0 0 0 0 0 0 0 0 0 0 0 0 0 0 0 0 0 0 0 0 0 0 0 0 0 0 0 0 0 0
32 24 17 14 12 12 10 7 5 3 1 0 0 0 0 0 0 0 0 0 0 0 0 0 0 0 0 0 0 0 0 0 0 0 0 0 0 0 0 0 0 0 0
32 26 20 17 11 8 7 6 3 1 0 0 0 0 0 0 0 0 0 0 0 0 0 0 0 0 0 0 0 0 0 0 0 0 0 0 0 0 0 0 0 0 0
31 27 23 19 13 9 7 5 3 1 0 0 0 0 1 0 0 0 0 0 0 0 0 0 0 0 0 0 0 0 0 0 0 0 0 0 0 0 0 0 0 0 0
31 28 23 20 17 13 9 6 3 1 0 0 0 0 0 0 0 0 0 0 0 0 0 0 0 0 0 0 0 0 0 0 0 0 0 0 0 0 0 0 0 0 0
32 28 24 22 19 14 10 7 3 1 1 1 1 0 0 1 2 1 0 0 0 0 0 0 0 0 0 0 0 0 0 0 0 0 0 0 0 0 0 0 0 0 0
29 26 24 24 20 14 10 6 4 3 2 2 2 1 0 1 2 1 0 0 0 0 0 0 0 0 0 0 0 0 0 0 0 0 0 0 0 0 0 0 0 0 0
22 21 21 22 19 13 9 6 3 3 3 3 3 1 0 0 1 1 1 0 0 0 0 0 0 0 0 0 0 0 0 0 0 0 0 0 0 0 0 0 0 0 0
17 17 18 18 16 12 9 5 3 3 3 3 3 2 1 0 1 2 2 1 0 0 0 0 0 0 0 0 0 0 0 0 0 0 0 0 0 0 0 0 0 0 0

GEFSSE_con_prob3kmehi_120.txt.gz
EHI
5 7 7 4 5 12 18 20 22 23 22 15 6 1 0 0 0 0 0 0 0 0 0 0 0 0 0 0 0 0 0 0 0 0 1 2 2 1 0 0 0 0 0
10 10 8 5 8 16 21 23 24 21 17 9 3 0 0 0 0 0 0 0 0 0 0 0 0 0 0 0 0 0 0 0 0 0 0 1 1 0 0 0 0 0 0
15 14 9 6 11 18 22 24 23 18 10 4 1 0 0 0 0 0 0 0 0 0 0 0 0 0 0 0 0 0 0 0 0 0 0 0 0 0 0 0 0 0 0
16 14 12 11 12 15 17 19 18 13 6 2 1 0 0 0 0 0 0 0 0 0 0 0 0 0 0 0 0 0 0 0 0 0 0 0 0 0 0 0 0 0 0
13 16 20 18 13 11 13 13 11 7 3 1 0 0 0 0 0 0 0 0 0 0 0 0 0 0 0 0 0 0 0 0 0 0 0 0 0 0 0 0 0 0 0
12 17 24 22 15 12 11 10 6 2 1 0 0 0 0 0 0 0 0 0 0 0 0 0 0 0 0 0 0 0 0 0 0 0 0 0 0 0 0 0 0 0 0
12 17 24 23 17 13 12 10 5 1 0 0 0 0 0 0 0 0 0 0 0 0 0 0 0 0 0 0 0 0 0 0 0 0 0 0 0 0 0 0 0 0 0
12 18 24 23 17 13 11 9 5 1 0 0 0 0 0 0 0 0 0 0 0 0 0 0 0 0 0 0 0 0 0 0 0 0 0 0 0 0 0 0 0 0 0
12 18 22 20 14 10 7 6 4 2 1 1 1 1 0 0 0 0 0 0 0 0 0 0 0 0 0 0 0 0 0 0 0 0 0 0 0 0 0 0 0 0 0
13 15 17 16 12 6 3 3 2 2 2 1 1 1 0 0 0 0 0 0 0 0 0 0 0 0 0 0 0 0 0 0 0 0 0 0 0 0 0 0 0 0 0
24 20 16 14 12 6 1 0 1 1 1 0 1 1 0 0 0 0 0 0 0 0 0 0 0 0 0 0 0 0 0 0 0 0 0 0 0 0 0 0 0 0 0
42 31 20 16 13 8 3 1 1 1 0 0 0 0 0 1 1 1 0 0 0 0 0 0 0 0 0 0 0 0 0 0 0 0 0 0 0 0 0 0 0 0 0
51 39 25 19 17 12 7 5 4 3 1 1 1 0 1 2 2 2 1 0 0 0 0 0 0 0 0 0 0 0 0 0 0 0 0 0 0 0 0 0 0 0 0
52 42 28 22 20 18 14 10 7 6 3 3 3 2 2 2 3 2 1 0 0 0 0 0 0 0 0 0 0 0 0 0 0 0 0 0 0 0 0 0 0 0 0
54 46 33 24 21 23 22 17 11 8 5 4 4 4 3 1 1 1 1 0 0 0 0 0 0 0 0 0 0 0 0 0 0 0 0 0 0 0 0 0 0 0 0
57 51 40 29 25 24 23 20 13 7 4 4 3 2 2 1 0 1 1 1 1 0 0 0 0 0 0 0 0 0 0 0 0 0 0 0 0 0 0 0 0 0 0
58 55 46 35 28 24 19 16 12 5 2 2 2 1 0 0 0 0 1 1 0 0 0 0 0 0 0 0 0 0 0 0 1 0 0 0 0 0 0 0 0 0 0
57 56 50 39 31 24 17 15 12 7 2 1 1 0 0 0 0 0 1 1 0 0 0 0 0 0 0 0 0 0 0 0 0 0 0 0 0 0 0 0 0 0 0
56 57 53 43 33 23 18 19 18 13 6 2 1 0 0 0 0 0 0 1 0 0 0 0 0 0 0 0 0 0 0 0 0 0 0 0 0 0 0 0 0 0 0
54 55 53 46 35 26 22 22 20 15 10 6 2 0 0 0 0 0 0 0 0 0 0 0 0 0 0 0 0 0 0 0 0 0 0 0 0 0 0 1 1 1 0
52 50 49 45 37 30 26 23 18 13 11 8 4 2 1 1 0 0 0 0 0 0 0 0 0 0 0 0 0 0 0 0 0 0 0 0 0 0 0 1 1 1 0
50 46 43 40 36 31 26 20 15 12 11 7 5 5 5 3 1 0 0 0 1 1 1 0 0 0 0 0 0 0 0 0 0 0 0 0 0 0 0 0 0 0 0
46 42 36 35 34 30 24 17 13 10 8 5 4 6 6 3 2 1 1 1 1 2 1 0 0 0 1 1 0 0 0 0 0 0 0 0 0 0 0 0 0 0 0
39 36 32 31 31 28 24 18 13 10 6 4 4 5 4 3 2 2 3 3 3 2 2 1 2 2 2 2 1 1 0 0 0 0 0 0 0 0 0 0 0 0 0
31 29 28 28 28 26 23 20 17 13 9 5 5 6 4 3 3 4 5 5 4 3 3 3 3 3 3 4 3 2 1 0 0 0 0 0 0 0 0 0 0 0 0
29 26 24 25 26 24 21 20 19 16 11 7 7 7 5 3 3 4 6 5 4 3 3 5 5 4 3 4 4 3 1 0 0 0 0 0 0 0 1 1 1 0 0

GEFSSE_con_prob3kmehi_126.txt.gz
EHI
22 21 22 17 6 1 0 0 0 0 0 0 0 0 0 0 0 0 0 0 0 0 0 0 0 0 0 0 0 0 1 2 1 0 0 0 0 0 0 0 0 0 0
28 26 25 20 9 2 0 0 0 0 0 0 0 0 0 0 0 0 0 0 0 0 0 0 0 0 0 0 0 0 1 1 1 0 0 0 0 0 0 0 0 0 0
28 24 23 20 11 4 1 0 0 0 0 0 0 0 0 0 0 0 0 0 0 0 0 0 0 0 0 0 0 0 0 0 0 0 0 0 0 0 0 0 0 0 0
19 17 19 19 12 5 2 1 1 0 0 0 0 0 0 0 0 0 0 0 0 0 0 0 0 0 0 0 0 0 0 0 0 0 0 0 0 0 0 0 0 0 0
18 19 22 21 13 6 3 3 2 1 0 0 0 0 0 0 0 0 0 0 0 0 0 0 0 0 0 0 0 0 0 0 0 0 0 0 0 0 0 0 0 0 0
31 28 24 22 16 8 5 4 2 1 0 0 0 0 0 0 0 0 0 0 0 0 0 0 0 0 0 0 0 0 0 1 1 0 0 0 0 0 0 0 0 0 0
47 36 25 23 18 9 5 4 2 1 0 0 0 0 0 0 0 0 0 0 0 0 0 0 0 0 0 0 0 0 1 3 2 0 0 0 0 0 0 0 0 0 0
61 43 26 21 16 9 4 3 2 1 0 0 0 0 0 1 0 0 0 0 0 0 0 0 0 0 0 0 0 0 2 4 3 0 0 0 0 1 0 0 0 0 0
67 47 25 15 11 7 4 3 2 1 0 0 0 0 0 0 0 0 0 0 0 0 0 0 0 0 0 0 0 0 2 3 2 0 0 0 1 1 0 0 0 1 1
65 46 24 14 10 7 4 3 3 1 0 0 0 0 0 0 0 0 0 0 0 0 0 0 0 0 0 0 0 1 2 2 1 1 1 1 2 1 0 0 0 0 0
62 45 28 20 13 7 5 4 3 2 1 0 0 0 0 0 0 0 1 1 0 0 0 0 0 0 0 0 1 2 3 3 1 1 2 3 4 2 0 0 0 0 0
62 50 38 29 17 11 10 8 4 2 1 0 0 0 0 0 0 1 2 2 1 0 0 0 0 0 0 1 1 2 3 2 1 1 1 3 5 3 1 0 0 0 0
66 58 50 41 28 23 23 13 6 4 2 2 2 1 0 0 1 2 3 2 1 0 0 0 1 0 0 0 1 1 1 1 1 0 1 3 5 4 1 0 0 0 0
70 64 59 55 47 45 38 22 12 9 7 7 9 5 1 1 2 4 3 1 0 0 0 0 0 0 0 0 1 1 1 2 1 0 1 3 5 4 1 0 0 0 0
75 68 65 65 64 62 52 34 23 21 18 17 13 8 4 5 7 7 5 1 0 0 0 0 0 0 0 0 1 0 1 1 1 0 1 3 5 4 2 0 0 0 0
81 75 69 69 69 66 55 41 33 30 27 22 16 11 8 11 15 12 4 1 0 1 1 0 0 0 0 0 0 0 0 1 0 0 1 2 3 3 2 1 0 0 0
83 78 70 66 64 60 49 38 32 30 29 28 25 19 14 18 23 16 5 1 2 2 2 1 0 1 0 0 0 0 1 2 2 1 2 2 1 1 2 1 0 0 0
82 78 70 62 57 51 43 36 32 30 34 39 37 30 24 25 26 18 10 6 5 4 3 1 0 1 0 0 0 0 2 6 5 3 3 3 3 2 1 1 0 0 0
83 80 73 64 57 49 41 39 37 38 43 46 42 37 34 31 26 19 16 14 8 4 4 4 3 3 2 1 0 0 3 8 10 7 4 4 4 4 2 1 0 0 0
85 83 77 69 62 52 44 42 41 42 46 45 42 42 41 35 27 20 19 19 12 7 8 7 6 5 3 2 1 0 2 7 12 11 6 4 4 5 7 6 3 1 0
86 82 77 73 67 57 49 46 43 42 43 41 41 44 41 33 27 21 20 22 18 14 12 10 7 5 4 2 1 1 1 5 10 12 10 7 5 7 12 13 8 3 1
83 80 75 72 69 61 53 47 42 39 37 33 36 42 38 31 26 21 23 24 22 19 16 14 10 6 4 2 3 3 1 2 5 8 11 10 9 11 13 13 12 9 7
80 78 74 70 67 64 56 46 38 34 30 26 31 39 37 31 27 25 25 27 26 22 17 15 12 9 6 4 4 5 3 2 2 5 8 9 11 11 9 8 12 14 13
76 76 73 69 66 63 59 50 39 32 26 23 27 36 37 31 28 28 27 29 29 24 17 13 12 11 7 4 4 5 5 3 1 2 4 5 7 8 6 4 8 13 14
71 71 71 70 68 63 59 54 44 34 26 22 25 32 35 31 27 26 29 31 30 24 17 15 16 14 8 4 3 4 5 3 1 1 1 2 3 4 4 4 6 9 10
66 67 68 71 70 63 58 53 46 36 28 23 24 28 31 30 27 25 28 33 31 23 18 17 18 15 10 6 3 3 4 3 1 1 1 1 2 3 5 6 7 8 8

GEFSSE_con_prob3kmehi_132.txt.gz
EHI
3 7 14 17 14 11 7 3 1 0 1 3 2 1 0 0 0 0 0 0 0 0 0 0 0 0 0 0 0 0 0 0 0 0 0 0 0 0 0 0 0 0 0
11 13 18 20 16 12 7 2 0 1 2 3 2 1 0 0 0 0 0 0 0 0 0 0 0 0 0 0 0 0 0 0 0 0 0 0 0 0 0 0 0 0 0
24 22 23 24 21 15 7 2 0 1 2 3 2 1 0 0 0 0 0 0 0 0 0 0 0 0 0 0 0 0 0 0 0 0 0 0 0 0 0 0 0 0 1
33 28 28 30 25 16 8 2 0 0 1 2 1 0 0 0 0 0 0 0 0 0 0 0 0 0 0 0 0 0 0 0 0 0 0 0 0 0 0 0 0 0 1
37 34 34 35 28 17 9 3 0 0 0 0 0 0 0 0 0 0 0 0 0 0 0 0 0 0 0 0 0 0 0 0 0 0 0 0 0 0 0 0 0 0 1
42 39 39 38 30 19 11 5 1 0 0 0 0 0 0 0 0 0 0 0 0 0 0 0 0 0 0 0 0 0 0 0 0 0 0 0 0 0 0 0 0 0 0
50 42 40 41 33 22 14 7 2 0 0 0 0 0 0 0 0 0 0 0 0 0 0 0 0 0 0 0 0 0 0 0 0 0 0 0 0 0 0 0 0 0 0
54 46 39 38 32 22 14 8 3 1 0 0 0 0 0 0 0 0 0 0 0 0 0 0 0 0 0 0 0 1 0 0 0 0 0 0 0 0 0 0 0 0 0
52 46 37 30 24 17 11 6 4 2 1 0 0 0 0 0 0 0 0 0 0 0 0 0 0 0 0 0 0 1 0 0 0 0 0 0 0 0 0 0 0 0 0
46 42 33 23 15 10 7 5 3 3 1 0 0 0 0 0 0 0 0 0 0 0 0 0 0 0 0 0 2 2 1 0 0 0 0 0 0 0 0 0 0 0 0
45 40 30 19 12 8 6 4 3 3 2 0 0 0 0 0 0 0 0 0 0 0 0 0 0 0 0 1 3 3 1 0 0 0 0 0 0 0 0 0 0 0 0
46 39 29 18 11 10 8 5 3 3 1 0 0 0 0 0 0 0 0 0 0 0 0 0 0 0 0 0 1 2 1 0 0 0 0 1 1 1 1 1 1 0 0
47 40 29 19 11 9 9 6 4 3 1 0 0 0 0 0 0 0 0 0 0 0 0 0 0 0 0 0 0 0 0 0 0 0 0 1 2 3 3 2 1 0 0
52 42 31 21 12 9 8 7 4 3 2 1 0 0 0 0 0 0 0 0 0 0 0 0 0 0 0 0 0 0 0 0 0 0 1 2 3 3 3 3 2 1 0
60 49 35 24 16 11 9 7 5 4 3 1 0 0 0 0 0 0 0 0 0 0 0 0 0 0 0 0 0 0 0 0 0 0 1 2 3 3 3 3 3 1 0
67 56 42 32 24 17 13 9 6 4 3 1 1 0 0 0 0 0 0 0 0 0 0 0 0 0 0 0 0 0 0 0 0 0 0 1 2 3 3 3 3 2 1
69 61 50 42 34 25 19 14 10 6 3 2 1 1 0 0 0 0 0 0 0 0 0 0 0 0 0 0 0 0 0 0 0 0 0 0 1 1 2 3 3 2 1
68 64 58 51 41 31 25 20 15 10 5 3 3 2 1 0 1 1 1 1 1 0 0 0 0 0 0 0 0 0 0 0 0 0 0 0 0 0 1 2 3 2 1
67 66 62 54 44 35 30 24 16 11 8 7 6 4 2 2 2 2 3 2 1 0 0 0 0 0 0 0 0 0 0 0 0 0 0 0 0 0 0 1 1 1 1
67 65 61 54 46 38 31 23 17 13 10 9 8 7 6 5 5 4 4 3 2 1 0 0 0 0 0 0 0 0 0 0 0 0 0 0 0 0 0 0 0 0 0
65 63 59 53 45 38 31 23 18 16 13 9 8 9 10 9 7 6 4 3 3 2 0 0 0 0 0 0 0 0 0 0 0 0 0 0 0 0 0 0 0 0 0
64 63 58 50 43 37 31 23 17 13 10 8 7 8 10 9 8 7 4 3 2 1 0 0 0 0 0 0 0 0 0 0 0 0 0 0 0 0 0 0 0 0 0
66 64 57 48 39 33 28 22 15 10 6 5 5 6 7 8 8 7 4 3 2 1 0 0 0 0 0 0 0 0 0 0 0 0 0 0 0 0 0 0 0 0 0
64 63 57 47 36 30 26 22 16 10 6 3 3 4 5 6 6 6 5 3 3 2 1 0 0 0 0 0 0 0 0 0 0 0 0 0 0 0 0 0 0 0 0
59 59 55 46 35 28 25 22 16 10 5 2 2 3 4 4 4 5 5 4 3 3 2 1 0 0 0 0 0 0 0 0 0 0 0 0 0 0 0 0 0 0 0
54 55 52 44 34 27 23 20 15 8 4 2 3 4 4 4 4 5 6 5 4 3 3 2 1 0 0 0 0 0 0 0 0 0 0 0 0 0 0 0 0 0 0

GEFSSE_con_prob3kmehi_138.txt.gz
EHI
1 4 9 10 9 10 12 15 20 23 23 20 15 8 2 0 0 0 0 0 0 0 0 0 0 0 0 0 0 0 0 0 0 0 0 0 0 0 0 0 0 0 0
5 7 11 13 13 13 15 16 17 17 16 13 9 4 1 0 0 0 0 0 0 0 0 0 0 0 0 0 0 0 0 0 0 0 0 0 0 0 0 0 0 0 0
13 12 13 17 18 17 17 16 13 10 8 5 2 1 0 0 0 0 0 0 0 0 0 0 0 0 0 0 0 0 0 0 0 0 0 0 0 0 0 0 0 0 0
23 18 17 20 21 19 18 16 12 9 5 1 0 0 0 0 0 0 0 0 0 0 0 0 0 0 0 0 0 0 0 0 0 0 0 0 0 0 0 0 0 0 0
26 22 22 26 26 22 19 17 13 8 3 0 0 0 0 0 0 0 0 0 0 0 0 0 0 0 0 0 0 0 0 0 0 0 0 0 0 0 0 0 0 0 0
25 22 25 32 31 24 20 16 12 6 3 1 0 0 0 0 0 0 0 0 0 0 0 0 0 0 0 0 0 0 0 0 0 0 0 0 0 0 0 0 0 0 0
27 23 26 34 34 26 19 14 10 6 4 3 1 0 0 0 0 0 0 0 0 0 0 0 0 0 0 0 0 0 0 0 0 0 0 0 0 0 0 0 0 0 0
32 27 27 31 31 25 17 12 8 5 4 3 2 1 0 0 0 0 0 0 0 0 0 0 0 0 0 0 0 0 0 0 0 0 0 0 0 0 0 0 0 0 0
31 28 25 23 22 19 15 10 8 5 3 3 2 1 0 0 0 0 0 0 0 0 0 0 0 0 0 0 1 1 1 1 0 0 0 0 0 0 0 0 0 0 0
24 23 20 16 14 12 10 9 8 5 3 2 1 0 0 0 0 0 0 0 0 0 0 0 0 0 0 1 2 2 2 1 0 0 0 0 0 0 0 0 0 0 0
21 19 16 14 12 10 8 7 7 5 3 1 0 0 0 0 0 0 0 0 0 0 0 0 0 0 0 2 2 1 1 1 0 0 0 0 0 0 0 0 0 0 0
27 22 16 14 14 11 8 6 5 4 2 0 0 0 0 0 0 0 0 0 0 0 0 0 0 0 0 1 1 1 0 0 0 0 0 0 0 0 0 0 0 0 0
33 26 18 15 14 12 8 5 4 3 2 1 0 0 0 0 0 0 0 0 0 0 0 0 0 0 0 0 0 0 0 0 0 0 0 0 0 0 0 0 0 0 0
34 27 20 16 15 12 8 5 4 3 3 2 0 0 0 0 0 0 0 0 0 0 0 0 0 0 0 0 0 0 0 0 0 0 0 0 0 1 2 1 0 0 0
31 27 21 18 15 12 8 5 4 3 2 1 0 0 0 0 0 0 0 0 0 0 0 0 0 0 0 0 0 0 0 0 0 0 0 0 0 1 2 2 1 0 0
27 25 21 18 14 10 6 5 4 3 1 0 0 0 0 0 0 0 0 0 0 0 0 0 0 0 0 0 0 0 0 0 0 0 0 0 0 1 1 2 2 1 1
23 22 20 16 10 6 5 4 3 3 1 0 0 0 0 0 0 0 0 0 0 0 0 0 0 0 0 0 0 0 0 0 0 0 0 0 0 0 1 2 2 2 2
21 20 18 13 8 4 3 3 3 3 2 1 0 0 0 0 0 0 0 0 0 0 0 0 0 0 0 0 0 0 0 0 0 0 0 0 0 0 0 1 2 2 3
22 20 17 13 7 4 3 3 3 3 2 1 0 0 0 0 0 0 0 0 0 0 0 0 0 0 0 0 0 0 0 0 0 0 0 0 0 0 0 0 1 1 2
26 23 19 15 9 5 3 3 3 3 2 0 0 0 0 0 0 0 1 1 0 1 1 0 0 0 0 0 0 0 0 0 0 0 0 0 0 0 0 0 0 0 1
32 28 22 19 15 10 7 5 4 3 2 1 0 0 0 0 0 1 2 2 2 2 2 1 0 0 0 0 0 0 0 0 0 0 0 0 0 0 0 0 0 0 0
35 31 27 25 21 17 12 8 4 3 2 1 0 0 0 0 0 1 2 2 3 3 3 1 1 0 0 0 0 0 0 0 0 0 0 0 0 0 0 0 0 0 0
33 30 28 27 24 19 15 12 8 6 4 1 0 0 0 0 0 0 1 2 3 3 3 2 2 1 0 0 0 0 0 0 0 0 0 0 0 0 0 0 0 0 0
29 26 24 22 20 18 16 15 14 11 6 2 1 0 0 0 0 0 0 2 3 3 3 3 2 2 1 0 0 0 0 0 0 0 0 0 0 0 0 0 0 0 0
25 23 22 20 17 16 15 15 14 11 6 2 1 1 1 0 0 0 0 1 3 3 3 3 3 2 1 0 0 0 0 0 0 0 0 0 0 0 0 0 0 0 0
24 24 25 22 16 14 14 13 12 9 4 1 1 2 1 0 0 0 0 1 2 3 3 3 3 2 1 0 0 0 0 0 0 0 0 0 0 0 0 0 0 0 0

GEFSSE_con_prob3kmehi_144.txt.gz
EHI
2 2 3 2 1 1 3 7 11 12 11 7 4 3 2 1 0 0 1 2 2 1 0 0 0 0 0 0 1 1 1 1 0 0 1 1 1 1 2 2 2 2 3
3 4 4 3 1 1 3 6 10 11 9 6 4 2 1 0 0 0 0 1 1 0 0 0 0 0 0 1 2 2 2 1 0 0 0 0 0 0 1 1 1 2 2
4 5 4 3 3 3 5 8 11 10 7 5 3 1 0 0 0 0 0 0 0 0 0 0 0 0 0 1 2 2 2 1 0 0 0 0 0 0 1 0 0 1 1
4 5 5 4 5 6 10 13 12 9 7 5 2 1 0 0 0 0 0 0 0 0 0 0 0 0 0 1 1 1 1 0 0 0 0 0 0 0 0 0 0 0 0
4 6 8 6 5 7 10 12 11 8 6 3 1 0 0 0 0 0 0 0 0 0 0 0 0 0 0 0 0 0 0 0 0 0 0 0 0 0 0 0 0 0 0
3 6 9 8 5 6 7 8 7 5 4 2 0 0 1 1 0 0 0 0 0 0 0 0 0 0 0 0 0 0 0 0 0 0 0 0 0 0 0 0 0 0 0
1 5 8 8 5 4 5 5 4 3 3 2 1 1 1 1 0 0 0 0 0 0 0 0 0 0 0 0 0 0 0 0 0 0 0 0 0 0 1 1 1 0 0
1 3 6 6 4 4 5 6 5 4 3 2 1 1 1 1 0 0 0 0 0 0 0 0 0 0 0 0 0 0 0 0 0 0 0 0 0 0 0 0 0 0 0
2 3 3 3 3 3 4 6 6 6 4 3 1 0 0 0 0 0 0 0 0 0 0 0 0 0 0 0 0 0 0 0 0 0 0 0 0 0 0 0 0 0 0
4 3 2 2 3 3 4 5 7 7 5 2 1 0 0 0 0 0 0 0 0 0 0 0 0 0 0 0 0 0 0 0 0 0 0 0 0 0 0 0 0 0 0
9 6 3 2 3 3 4 4 5 5 4 1 0 0 0 0 0 0 0 0 0 0 0 0 0 0 0 0 0 0 0 0 0 0 0 0 0 0 0 0 0 0 0
18 13 7 5 4 4 4 4 3 3 2 1 0 0 0 0 0 0 0 0 0 0 0 0 0 0 0 0 0 0 0 0 0 0 0 0 0 0 0 0 0 0 0
25 19 12 8 6 6 6 5 3 2 1 0 0 0 0 0 0 0 0 0 0 0 0 0 0 0 0 0 0 0 0 0 0 0 0 0 0 0 0 0 0 0 0
28 25 19 12 10 10 8 6 4 3 2 1 0 0 0 0 0 0 0 0 0 0 0 0 0 0 0 0 0 0 0 0 0 0 0 0 0 0 0 0 0 0 0
32 30 25 18 15 13 11 8 7 6 4 2 1 0 0 0 0 0 0 0 0 0 0 0 0 0 0 0 0 0 0 0 0 0 0 0 0 0 0 0 0 0 0
38 35 29 23 20 17 14 12 10 8 7 4 2 1 1 0 0 0 0 0 0 0 0 0 0 0 0 0 0 0 0 0 0 0 0 0 0 0 0 0 0 0 0
39 36 30 24 22 21 17 14 10 8 7 5 3 2 2 2 2 1 1 0 0 0 0 0 0 0 0 0 0 0 0 0 0 0 0 0 0 0 0 0 0 1 1
36 34 28 22 21 22 18 13 9 7 7 5 4 4 3 3 3 3 2 1 0 0 0 0 0 0 0 0 0 0 0 0 0 0 0 0 0 0 0 1 1 2 2
32 30 26 21 20 20 16 12 9 8 8 6 5 5 4 3 3 3 2 2 1 0 1 1 1 0 0 0 0 0 0 0 0 0 0 0 0 0 0 1 2 2 3
29 29 27 25 25 22 17 12 10 10 9 7 5 6 5 4 3 2 2 2 2 1 2 2 2 0 0 0 0 0 0 0 0 0 1 1 0 0 0 1 1 1 2
32 33 33 34 35 30 21 16 13 12 10 7 5 5 6 5 4 3 2 2 3 3 2 2 1 0 0 0 0 0 0 0 0 0 1 1 0 0 0 0 0 1 2
41 41 40 41 42 36 25 18 15 12 9 7 5 5 5 4 3 4 3 3 5 4 3 2 2 1 1 1 1 1 0 0 0 0 1 1 1 1 1 1 1 1 1
47 46 44 43 42 35 25 18 15 14 10 6 4 4 3 2 2 3 3 4 4 4 3 3 3 3 3 4 4 2 1 0 0 0 0 0 1 2 2 2 2 2 1
44 44 44 43 41 34 25 19 17 15 10 6 4 4 4 3 2 3 4 4 3 2 2 3 4 4 4 4 5 4 3 1 0 0 0 1 2 3 2 1 2 2 2
37 39 40 41 39 33 26 21 18 13 8 5 4 4 5 5 3 3 5 6 5 2 1 2 3 3 4 5 5 6 5 4 2 1 0 1 1 1 1 1 1 2 3
35 35 36 37 39 33 26 22 16 10 6 3 2 4 4 4 3 4 4 6 5 3 1 1 1 3 5 6 6 7 8 6 4 3 1 0 1 0 0 1 2 2 3

GEFSSE_con_prob3kmehi_150.txt.gz
EHI
1 1 1 0 0 0 0 0 0 0 0 0 0 0 0 0 0 0 1 1 1 0 0 0 0 0 0 0 0 0 0 0 1 2 2 1 1 3 2 1 0 0 0
2 1 1 1 0 0 0 0 0 0 0 0 0 0 0 0 0 0 0 1 1 0 0 0 0 0 0 0 0 0 0 0 0 1 1 1 2 3 2 1 0 0 0
1 1 2 1 1 0 0 0 0 0 0 0 0 0 0 0 0 0 0 1 1 1 0 0 0 0 0 0 0 0 0 0 0 0 0 1 2 2 1 0 0 0 0
3 3 3 3 1 0 0 0 0 0 0 0 0 0 0 0 0 0 0 1 2 1 0 0 0 0 0 0 0 0 0 0 0 0 0 0 1 1 0 1 1 0 0
11 8 5 4 2 1 0 0 0 0 0 0 0 0 0 0 0 0 0 1 2 1 0 0 0 0 0 0 0 0 0 0 0 0 0 0 0 0 0 1 1 0 0
18 12 8 6 3 1 1 0 0 0 0 0 0 0 0 0 0 0 0 1 1 0 0 0 0 0 0 0 0 0 0 1 0 0 1 1 0 0 0 1 1 0 0
26 19 12 9 5 2 1 0 0 0 0 0 0 0 0 0 0 0 0 0 0 0 0 0 0 0 0 0 0 0 2 3 2 0 1 1 0 0 0 0 0 0 0
34 24 14 10 7 3 1 0 0 0 0 0 0 0 0 0 0 0 0 0 0 0 0 0 0 0 0 0 0 0 4 6 3 0 1 0 0 0 0 0 0 0 0
34 25 15 9 6 5 3 2 0 0 0 0 0 0 0 0 0 0 0 0 0 0 0 0 0 0 0 0 0 1 5 7 4 1 1 1 0 0 0 0 0 0 0
27 22 15 10 8 7 6 5 2 1 0 0 0 0 0 0 1 1 1 1 1 0 0 0 0 0 0 0 1 2 5 5 3 1 2 1 0 0 0 0 0 0 0
19 17 16 15 12 11 10 8 5 3 1 0 1 1 1 1 1 2 3 3 2 1 0 0 0 0 0 0 1 3 3 3 1 1 2 1 0 0 0 0 0 0 0
15 17 18 18 16 17 14 10 7 5 4 3 3 3 2 1 1 2 3 3 2 1 0 0 0 0 0 0 1 2 2 1 0 0 1 2 1 0 0 0 0 0 0
20 20 21 20 23 25 21 13 9 8 7 6 6 3 1 1 1 2 3 2 1 0 0 0 0 0 0 0 0 1 1 1 0 0 1 3 4 2 1 1 1 1 0
29 25 24 29 35 38 32 20 13 10 9 10 8 4 1 1 2 3 4 2 0 0 0 0 0 0 0 0 0 0 1 1 1 1 1 3 4 3 2 2 2 2 1
42 35 33 40 45 45 39 26 16 12 12 12 10 6 3 2 3 5 5 3 1 0 0 0 0 0 0 0 0 0 1 1 0 1 1 2 2 3 4 4 3 3 3
59 51 46 48 48 43 35 26 16 12 14 14 13 10 6 5 7 7 6 5 2 1 2 1 1 2 1 0 0 0 0 0 0 1 2 3 3 4 5 5 4 4 4
71 64 54 49 46 40 31 24 16 13 14 16 17 15 11 10 11 8 6 6 5 4 4 3 2 3 2 0 0 0 0 1 2 2 3 5 6 7 7 7 7 6 5
75 70 57 47 45 40 31 25 18 15 15 18 19 17 14 13 12 9 6 6 7 6 5 3 3 4 3 1 1 1 1 3 4 4 4 7 10 10 9 9 9 8 6
76 72 62 55 51 44 33 27 21 18 18 18 18 19 17 14 11 8 7 8 8 7 4 4 5 6 5 3 2 4 4 6 8 6 6 9 12 13 10 9 9 7 6
76 74 68 64 60 51 38 29 23 20 19 17 18 22 21 15 9 8 10 12 12 9 7 7 8 8 9 7 5 5 5 7 9 9 9 11 12 13 14 15 12 8 6
77 75 71 68 64 57 44 32 25 21 18 17 21 26 24 17 12 10 12 16 16 14 13 13 11 10 9 8 7 5 4 4 7 10 10 10 10 13 17 22 20 14 10
78 77 74 71 67 61 50 36 26 21 17 17 24 29 25 19 16 13 14 17 18 18 16 14 12 11 8 6 5 5 3 2 3 5 8 8 9 12 15 20 24 22 18
78 77 74 72 70 64 53 40 29 24 19 18 24 28 26 21 19 18 17 18 18 18 17 13 12 12 8 5 6 7 6 4 2 3 4 6 8 11 11 13 20 25 24
75 74 73 73 71 66 56 45 37 30 23 18 20 24 24 22 20 19 21 22 20 19 17 13 12 13 9 8 10 9 7 5 4 3 3 4 7 11 11 10 14 21 23
69 70 71 71 70 67 59 51 44 37 29 22 20 22 24 23 20 20 24 27 24 21 19 17 16 16 13 12 12 10 8 6 4 2 2 3 5 8 11 11 11 16 20
67 67 68 68 69 67 62 55 48 41 33 27 24 24 25 24 22 22 26 30 26 22 21 21 20 18 16 15 13 12 11 8 4 1 0 1 3 5 9 11 11 14 18

GEFSSE_con_prob3kmehi_156.txt.gz
EHI
0 2 5 5 4 3 3 3 3 3 2 1 2 4 5 5 4 4 3 2 1 0 0 0 0 0 0 1 2 2 1 0 0 0 1 2 3 2 1 0 0 0 0
1 3 7 7 5 3 2 2 2 2 2 1 1 3 3 3 2 1 1 1 0 0 0 0 0 0 0 1 1 1 0 0 0 0 1 2 2 2 1 0 0 0 0
4 5 7 10 7 3 1 0 1 1 1 1 1 1 1 1 0 0 0 0 0 0 0 0 0 0 0 0 1 1 1 1 1 0 0 1 1 1 0 0 0 0 0
6 5 7 9 8 4 2 0 0 0 0 0 0 0 0 0 0 0 0 0 0 0 0 0 0 0 0 0 0 1 2 2 2 1 0 0 0 0 0 0 0 0 0
6 5 7 9 7 5 3 1 0 0 0 0 0 0 0 0 0 1 0 0 0 0 0 0 0 0 0 0 0 1 3 3 2 1 0 0 0 0 0 0 0 0 0
7 6 8 9 7 5 4 2 1 0 0 0 0 0 0 0 0 0 0 0 0 0 0 0 0 0 0 0 0 1 2 2 1 0 0 0 0 0 0 0 1 1 0
10 8 8 9 7 4 4 3 2 1 0 0 0 0 0 0 0 0 0 0 0 0 0 0 0 0 0 0 0 0 1 1 0 0 0 0 0 1 0 0 1 1 1
14 10 8 8 7 6 5 4 3 1 0 0 0 0 0 0 0 0 0 0 0 0 0 0 0 0 0 0 0 0 0 0 0 0 0 1 3 4 2 1 1 1 0
16 12 8 6 6 6 6 6 4 1 0 0 0 0 0 0 0 0 0 0 0 0 0 0 0 0 0 0 0 0 0 0 0 0 0 2 6 7 5 1 0 0 0
16 12 7 5 5 5 5 6 5 2 0 0 0 0 0 0 0 0 0 0 0 0 0 0 0 0 0 0 0 1 1 1 0 0 0 2 6 7 5 2 0 0 0
13 10 7 6 6 4 3 4 3 1 0 0 0 0 0 0 0 0 1 1 0 0 0 0 0 1 1 0 0 1 1 1 0 0 0 2 5 6 5 2 0 0 0
13 9 7 7 7 4 2 1 1 0 0 0 0 0 0 0 0 0 1 1 0 0 0 0 1 2 1 0 0 0 0 0 0 0 0 1 3 5 5 3 1 1 0
16 12 8 8 7 4 2 1 0 0 0 0 0 0 1 1 0 0 1 1 0 0 0 0 0 1 0 0 0 0 0 0 0 0 0 2 3 4 4 4 3 1 1
22 16 13 11 9 7 5 3 1 0 0 0 0 1 2 2 1 0 0 0 0 0 0 0 0 0 0 0 0 0 0 0 0 0 0 3 4 3 3 4 3 2 1
27 24 21 20 16 12 9 5 4 2 1 0 0 1 3 2 1 0 0 0 0 0 0 0 0 0 0 0 0 0 0 0 0 0 0 3 5 5 5 5 4 3 4
34 32 30 27 24 17 10 6 6 5 4 2 1 2 3 2 1 0 0 0 0 0 0 0 0 0 0 0 0 0 0 0 0 0 0 2 6 9 9 7 6 5 5
44 40 35 32 27 17 8 6 7 7 6 4 3 2 2 2 0 0 0 0 0 0 0 0 0 0 0 0 0 0 0 0 0 0 0 1 4 8 9 8 6 5 4
48 43 38 35 28 17 10 9 10 9 7 6 4 3 3 3 1 1 1 0 0 0 0 0 0 0 0 0 0 0 0 0 0 0 0 0 1 2 4 4 4 2 1
46 43 39 35 29 21 15 13 14 11 8 6 5 4 4 4 3 2 2 1 1 0 0 0 0 0 0 0 0 0 0 0 0 0 0 0 0 0 0 1 2 2 1
45 43 41 36 30 23 18 15 14 12 10 7 5 3 3 4 3 3 3 3 2 1 1 0 0 0 0 0 0 0 0 0 0 0 0 0 0 0 0 0 1 1 1
50 48 44 39 31 24 18 14 12 11 11 7 3 2 2 3 2 3 3 3 3 3 2 1 0 0 0 0 0 0 0 0 0 0 0 0 0 0 0 0 0 0 1
59 55 48 41 34 26 18 11 8 8 8 6 3 2 2 2 1 1 2 3 3 3 2 1 0 0 0 0 0 0 0 0 0 0 0 0 0 0 0 1 0 0 0
63 59 53 45 36 28 19 11 7 5 4 4 3 3 3 2 1 1 1 2 3 4 2 0 0 0 0 0 0 0 0 0 0 0 0 0 0 0 0 1 1 1 0
63 61 57 51 40 29 21 15 10 7 4 2 2 3 3 3 3 2 1 2 4 4 2 0 0 0 0 0 0 0 0 0 0 0 0 0 0 0 0 1 2 2 1
62 61 59 54 44 33 24 18 13 10 6 3 3 4 4 4 4 3 2 2 3 2 1 0 0 0 0 0 0 0 0 0 0 0 0 0 0 0 0 1 2 2 2
60 62 60 55 47 36 27 19 14 11 8 5 4 5 4 4 4 3 2 1 1 1 0 0 0 0 0 0 0 0 0 0 0 0 0 0 0 0 0 0 1 2 3

GEFSSE_con_prob3kmehi_162.txt.gz
EHI
0 0 1 1 2 4 5 6 7 9 8 6 3 0 0 0 0 0 0 0 0 0 0 0 0 0 0 0 0 0 1 2 2 2 2 1 1 1 1 1 1 1 2
1 1 2 4 5 4 4 5 7 8 8 7 3 0 0 0 0 0 0 0 0 0 0 0 0 0 0 0 0 0 2 2 2 1 1 1 1 1 0 0 1 1 2
2 2 5 9 9 6 4 3 4 5 5 5 2 0 0 0 0 0 0 0 0 1 1 1 1 1 1 1 0 0 1 1 1 0 0 0 0 0 0 0 1 2 3
3 3 6 11 10 7 4 2 3 3 3 2 0 0 0 0 0 0 0 0 1 2 2 2 2 2 2 1 0 0 0 0 0 0 0 0 0 0 0 0 1 2 2
3 3 6 9 9 6 4 2 2 3 2 1 0 0 0 0 0 0 0 0 1 1 1 1 2 3 3 1 0 1 1 1 1 0 0 0 0 0 0 0 0 1 1
3 2 4 7 8 6 5 2 1 2 2 1 1 1 0 0 0 0 0 0 0 0 0 1 2 3 3 2 2 2 2 2 1 0 0 0 0 0 0 0 0 0 0
3 2 3 7 8 7 5 2 1 1 2 1 1 1 0 0 0 0 0 0 0 0 0 2 3 3 3 3 3 3 3 1 0 0 0 0 0 0 0 0 0 0 0
3 2 3 5 6 6 5 2 0 1 1 0 0 0 0 0 0 0 0 0 0 0 0 1 2 2 2 3 3 3 2 1 0 0 0 0 0 0 0 0 0 0 1
3 3 3 2 2 3 3 1 0 0 0 0 0 0 0 0 0 0 0 0 0 0 0 0 1 1 1 1 2 1 1 1 0 0 0 0 0 0 0 0 0 1 2
3 3 2 1 1 1 1 0 0 0 0 0 0 0 0 0 0 0 0 0 0 0 0 0 0 0 0 0 0 0 0 1 0 0 0 0 0 0 0 0 0 1 2
4 3 1 1 1 0 0 0 0 0 0 0 0 0 0 0 0 0 0 0 0 0 0 0 0 0 0 0 0 0 0 0 0 0 0 0 0 0 0 1 1 0 1
6 4 2 1 1 0 0 0 0 0 0 0 0 0 0 0 0 0 0 0 0 0 0 0 0 0 0 0 0 0 0 0 0 0 0 0 0 0 0 2 2 1 0
8 5 3 2 1 0 0 0 0 0 0 0 0 0 0 0 0 0 0 0 0 0 0 0 0 0 0 0 0 0 0 0 0 0 0 1 1 1 1 2 2 1 0
8 5 3 3 2 1 0 0 0 0 0 0 0 0 0 0 0 0 0 0 0 0 0 0 0 0 0 0 0 0 0 0 0 0 0 1 2 3 2 1 1 0 0
7 6 5 4 3 2 1 0 0 0 0 0 0 0 0 0 0 0 0 0 0 0 0 0 0 0 0 0 0 0 0 0 0 0 0 1 3 4 3 1 0 0 0
6 6 7 6 4 3 3 1 0 0 0 0 0 0 0 0 0 0 0 0 0 0 0 0 0 0 0 0 0 0 0 0 0 0 0 1 2 4 4 2 1 0 0
4 5 7 6 4 3 3 2 1 0 0 0 0 0 0 0 0 0 0 0 0 0 0 0 0 0 0 0 0 0 0 0 0 0 0 0 1 3 4 4 2 1 1
3 5 7 7 5 4 3 3 2 1 0 0 0 0 0 0 0 0 0 0 0 0 0 0 0 0 0 0 0 0 0 0 0 0 0 0 0 1 3 5 5 3 2
5 6 8 10 8 4 3 3 3 2 1 0 0 0 0 0 0 1 0 0 0 0 0 0 0 0 0 0 0 0 0 0 0 0 0 0 0 0 1 3 4 4 3
10 10 11 12 9 5 3 3 3 2 1 0 0 0 0 0 0 0 0 0 0 0 0 0 0 0 0 0 0 0 0 0 0 0 0 0 0 0 0 0 1 1 1
16 15 14 13 10 5 4 4 3 2 1 0 0 0 0 0 0 0 0 0 0 0 0 0 0 0 0 0 0 0 0 0 0 0 0 0 0 0 0 0 0 0 0
22 20 17 14 10 6 5 4 2 1 1 1 0 0 0 0 0 0 0 0 0 0 0 0 0 0 0 0 0 0 0 0 0 0 0 0 0 0 0 0 0 0 0
25 23 20 16 11 7 5 4 2 1 1 1 1 1 0 0 0 0 0 0 0 0 0 0 0 0 0 0 0 0 0 0 0 0 0 0 0 0 0 0 0 0 0
24 24 21 17 12 8 4 3 3 2 2 2 2 1 0 0 0 0 1 1 1 1 0 0 0 0 0 0 0 0 0 0 0 0 0 0 0 0 0 0 0 0 0
24 24 21 16 11 7 5 4 3 2 1 1 1 1 0 0 0 0 1 2 2 2 1 0 0 0 0 0 0 0 0 0 0 0 0 0 0 0 0 0 0 0 0
24 23 21 15 9 7 5 4 3 3 1 0 0 0 0 0 0 0 0 1 2 2 1 0 0 0 0 0 0 0 0 0 0 0 0 0 0 0 0 0 0 0 0